GREAT EAST LAKE DAM: From 07/21/2018 00:00 to 09/21/2018 00:00

Date LAKE ELEVATION [FT] PRECIPITATION INCREMENT [IN] PRECIPITATION TOTAL [IN] AIR TEMPERATURE [F] RELATIVE HUMIDITY [%]
09/19/2018 12:00 574.30 0.00 -- 56.9 34.0
09/19/2018 11:00 574.30 0.00 -- 56.6 34.0
09/19/2018 10:00 574.30 0.00 -- 56.2 34.0
09/19/2018 09:00 574.31 0.00 -- 56.4 32.0
09/19/2018 08:00 574.31 0.00 -- 56.8 32.0
09/19/2018 07:00 574.29 0.00 -- 58.2 35.0
09/19/2018 06:00 574.31 0.00 -- 59.1 34.0
09/19/2018 05:00 574.31 0.00 -- 60.6 33.0
09/19/2018 04:00 574.32 0.00 -- 62.6 31.0
09/19/2018 03:00 574.31 0.00 -- 65.6 32.0
09/19/2018 02:00 574.31 0.00 -- 67.3 32.0
09/19/2018 01:00 574.30 0.00 -- 67.3 32.0
09/19/2018 00:00 574.31 0.00 -- 66.9 26.0
09/18/2018 23:00 574.32 0.00 -- 67.9 26.0
09/18/2018 22:00 574.31 0.00 -- 69.1 27.0
09/18/2018 21:00 574.31 0.00 -- 69.5 26.0
09/18/2018 20:00 574.31 0.00 -- 70.7 27.0
09/18/2018 19:00 574.32 0.00 -- 72.0 27.0
09/18/2018 18:00 574.30 0.00 -- 72.6 27.0
09/18/2018 17:00 574.31 0.00 -- 75.5 28.0
09/18/2018 16:00 574.31 0.00 -- 75.5 34.0
09/18/2018 15:00 574.31 0.00 -- 74.7 35.0
09/18/2018 14:00 574.33 0.00 -- 72.2 35.0
09/18/2018 13:00 574.30 0.00 -- 69.2 35.0
09/18/2018 12:00 574.32 0.04 -- 67.9 35.0
09/18/2018 11:00 574.30 0.12 -- 67.6 36.0
09/18/2018 10:00 574.30 0.26 -- 67.3 37.0
09/18/2018 09:00 574.28 0.06 -- 67.8 38.0
09/18/2018 08:00 574.28 0.02 -- 68.1 38.0
09/18/2018 07:00 574.28 0.00 -- 68.4 38.0
09/18/2018 06:00 574.30 0.02 -- 68.5 38.0
09/18/2018 05:00 574.28 0.00 -- 68.6 38.0
09/18/2018 04:00 574.27 0.00 -- 69.6 34.0
09/18/2018 03:00 574.26 0.00 -- 69.6 32.0
09/18/2018 02:00 574.27 0.00 -- 68.5 31.0
09/18/2018 01:00 574.28 0.00 -- 68.4 31.0
09/18/2018 00:00 574.28 0.00 0.52 69.6 31.0
09/17/2018 23:00 574.27 0.00 -- 68.4 30.0
09/17/2018 22:00 574.27 0.00 -- 68.4 29.0
09/17/2018 21:00 574.27 0.00 -- 69.7 28.0
09/17/2018 20:00 574.28 0.00 -- 71.4 28.0
09/17/2018 19:00 574.27 0.00 -- 74.1 28.0
09/17/2018 18:00 574.27 0.00 -- 76.1 28.0
09/17/2018 17:00 574.28 0.00 -- 80.1 28.0
09/17/2018 16:00 574.29 0.00 -- 81.1 28.0
09/17/2018 15:00 574.29 0.00 -- 81.1 27.0
09/17/2018 14:00 574.28 0.00 -- 80.1 25.0
09/17/2018 13:00 574.29 0.00 -- 79.2 31.0
09/17/2018 12:00 574.29 0.00 -- 76.3 32.0
09/17/2018 11:00 574.29 0.00 -- 72.7 33.0
09/17/2018 10:00 574.28 0.00 -- 67.2 33.0
09/17/2018 09:00 574.28 0.00 -- 64.6 33.0
09/17/2018 08:00 574.28 0.00 -- 63.6 33.0
09/17/2018 07:00 574.28 0.00 -- 63.6 32.0
09/17/2018 06:00 574.28 0.00 -- 64.1 32.0
09/17/2018 05:00 574.28 0.00 -- 64.0 31.0
09/17/2018 04:00 574.28 0.00 -- 64.7 25.0
09/17/2018 03:00 574.29 0.00 -- 65.3 25.0
09/17/2018 02:00 574.28 0.00 -- 66.1 24.0
09/17/2018 01:00 574.28 0.00 -- 67.0 24.0
09/17/2018 00:00 574.28 0.00 0.00 67.4 24.0
09/16/2018 23:00 574.29 0.00 -- 68.7 24.0
09/16/2018 22:00 574.28 0.00 -- 70.1 22.0
09/16/2018 21:00 574.29 0.00 -- 71.9 22.0
09/16/2018 20:00 574.28 0.00 -- 73.4 22.0
09/16/2018 19:00 574.28 0.00 -- 75.8 23.0
09/16/2018 18:00 574.29 0.00 -- 77.8 23.0
09/16/2018 17:00 574.29 0.00 -- 80.6 22.0
09/16/2018 16:00 574.30 0.00 -- 83.9 22.0
09/16/2018 15:00 574.29 0.00 -- 81.5 23.0
09/16/2018 14:00 574.29 0.00 -- 77.6 30.0
09/16/2018 13:00 574.30 0.00 -- 78.1 30.0
09/16/2018 12:00 574.29 0.00 -- 75.1 31.0
09/16/2018 11:00 574.29 0.00 -- 71.2 32.0
09/16/2018 10:00 574.29 0.00 -- 69.4 33.0
09/16/2018 09:00 574.30 0.00 -- 67.3 34.0
09/16/2018 08:00 574.29 0.00 -- 66.4 33.0
09/16/2018 07:00 574.29 0.00 -- 66.5 33.0
09/16/2018 06:00 574.30 0.00 -- 66.1 33.0
09/16/2018 05:00 574.30 0.00 -- 66.3 33.0
09/16/2018 04:00 574.30 0.00 -- 66.0 34.0
09/16/2018 03:00 574.29 0.00 -- 61.8 35.0
09/16/2018 02:00 574.29 0.00 -- 62.0 35.0
09/16/2018 01:00 574.28 0.00 -- 62.5 35.0
09/16/2018 00:00 574.28 0.00 0.00 63.9 35.0
09/15/2018 23:00 574.29 0.00 -- 65.4 35.0
09/15/2018 22:00 574.30 0.00 -- 66.2 35.0
09/15/2018 21:00 574.30 0.00 -- 67.3 35.0
09/15/2018 20:00 574.29 0.00 -- 68.6 35.0
09/15/2018 19:00 574.30 0.00 -- 71.0 35.0
09/15/2018 18:00 574.29 0.00 -- 73.5 36.0
09/15/2018 17:00 574.29 0.00 -- 75.6 37.0
09/15/2018 16:00 574.29 0.00 -- 79.6 34.0
09/15/2018 15:00 574.30 0.00 -- 75.3 33.0
09/15/2018 14:00 574.30 0.00 -- 73.8 33.0
09/15/2018 13:00 574.30 0.00 -- 70.3 33.0
09/15/2018 12:00 574.30 0.00 -- 66.9 33.0
09/15/2018 11:00 574.30 0.00 -- 64.3 34.0
09/15/2018 10:00 574.29 0.00 -- 63.9 34.0
09/15/2018 09:00 574.30 0.00 -- 63.2 34.0
09/15/2018 08:00 574.30 0.00 -- 62.8 34.0
09/15/2018 07:00 574.30 0.00 -- 58.1 34.0
09/15/2018 06:00 574.30 0.00 -- 56.5 34.0
09/15/2018 05:00 574.29 0.00 -- 56.1 34.0
09/15/2018 04:00 574.30 0.00 -- 55.2 35.0
09/15/2018 03:00 574.31 0.00 -- 55.3 33.0
09/15/2018 02:00 574.31 0.00 -- 55.9 34.0
09/15/2018 01:00 574.30 0.00 -- 56.4 33.0
09/15/2018 00:00 574.30 0.00 0.00 57.3 32.0
09/14/2018 23:00 574.30 0.00 -- 58.9 32.0
09/14/2018 22:00 574.30 0.00 -- 59.8 31.0
09/14/2018 21:00 574.31 0.00 -- 61.1 30.0
09/14/2018 20:00 574.30 0.00 -- 64.3 29.0
09/14/2018 19:00 574.30 0.00 -- 68.1 30.0
09/14/2018 18:00 574.30 0.00 -- 70.7 29.0
09/14/2018 17:00 574.30 0.00 -- 72.8 30.0
09/14/2018 16:00 574.31 0.00 -- 76.5 29.0
09/14/2018 15:00 574.31 0.00 -- 75.9 29.0
09/14/2018 14:00 574.31 0.00 -- 75.1 31.0
09/14/2018 13:00 574.31 0.00 -- 73.1 29.0
09/14/2018 12:00 574.31 0.00 -- 69.1 29.0
09/14/2018 11:00 574.30 0.00 -- 66.6 29.0
09/14/2018 10:00 574.31 0.00 -- 63.4 27.0
09/14/2018 09:00 574.31 0.00 -- 61.1 28.0
09/14/2018 08:00 574.30 0.00 -- 58.6 29.0
09/14/2018 07:00 574.31 0.00 -- 58.8 29.0
09/14/2018 06:00 574.31 0.00 -- 59.6 29.0
09/14/2018 05:00 574.31 0.00 -- 59.8 29.0
09/14/2018 04:00 574.30 0.00 -- 60.8 25.0
09/14/2018 03:00 574.31 0.00 -- 61.4 25.0
09/14/2018 02:00 574.31 0.00 -- 62.4 25.0
09/14/2018 01:00 574.30 0.00 -- 63.0 25.0
09/14/2018 00:00 574.31 0.00 0.00 63.5 25.0
09/13/2018 23:00 574.31 0.00 -- 64.3 24.0
09/13/2018 22:00 574.31 0.00 -- 65.7 24.0
09/13/2018 21:00 574.31 0.00 -- 66.2 24.0
09/13/2018 20:00 574.31 0.00 -- 67.9 24.0
09/13/2018 19:00 574.31 0.00 -- 70.1 24.0
09/13/2018 18:00 574.30 0.00 -- 72.1 23.0
09/13/2018 17:00 574.31 0.00 -- 73.1 24.0
09/13/2018 16:00 574.30 0.00 -- 73.5 24.0
09/13/2018 15:00 574.31 0.00 -- 72.1 23.0
09/13/2018 14:00 574.31 0.00 -- 71.3 24.0
09/13/2018 13:00 574.31 0.00 -- 68.8 23.0
09/13/2018 12:00 574.31 0.00 -- 67.9 23.0
09/13/2018 11:00 574.31 0.00 -- 66.9 23.0
09/13/2018 10:00 574.31 0.00 -- 65.2 24.0
09/13/2018 09:00 574.31 0.00 -- 63.9 23.0
09/13/2018 08:00 574.32 0.00 -- 63.0 24.0
09/13/2018 07:00 574.32 0.06 -- 63.0 24.0
09/13/2018 06:00 574.30 0.00 -- 63.1 24.0
09/13/2018 05:00 574.30 0.00 -- 63.5 23.0
09/13/2018 04:00 574.30 0.00 -- 63.0 23.0
09/13/2018 03:00 574.31 0.00 -- 63.2 23.0
09/13/2018 02:00 574.31 0.00 -- 63.4 23.0
09/13/2018 01:00 574.30 0.00 -- 63.7 23.0
09/13/2018 00:00 574.30 0.00 0.06 63.8 23.0
09/12/2018 23:00 574.30 0.00 -- 63.5 23.0
09/12/2018 22:00 574.30 0.00 -- 62.8 23.0
09/12/2018 21:00 574.31 0.00 -- 64.1 23.0
09/12/2018 20:00 574.31 0.00 -- 65.4 23.0
09/12/2018 19:00 574.31 0.00 -- 66.8 23.0
09/12/2018 18:00 574.30 0.00 -- 67.0 22.0
09/12/2018 17:00 574.30 0.00 -- 67.3 22.0
09/12/2018 16:00 574.31 0.00 -- 66.4 22.0
09/12/2018 15:00 574.31 0.00 -- 65.7 22.0
09/12/2018 14:00 574.31 0.00 -- 65.1 21.0
09/12/2018 13:00 574.31 0.03 -- 64.5 21.0
09/12/2018 12:00 574.30 0.00 -- 64.8 22.0
09/12/2018 11:00 574.31 0.00 -- 64.8 22.0
09/12/2018 10:00 574.32 0.00 -- 64.7 21.0
09/12/2018 09:00 574.31 0.00 -- 65.0 22.0
09/12/2018 08:00 574.31 0.00 -- 64.5 22.0
09/12/2018 07:00 574.31 0.00 -- 64.9 22.0
09/12/2018 06:00 574.31 0.00 -- 64.5 23.0
09/12/2018 05:00 574.31 0.00 -- 64.4 24.0
09/12/2018 04:00 574.30 0.00 -- 64.3 24.0
09/12/2018 03:00 574.31 0.00 -- 64.2 24.0
09/12/2018 02:00 574.32 0.00 -- 64.6 24.0
09/12/2018 01:00 574.31 0.00 -- 64.4 24.0
09/12/2018 00:00 574.30 0.00 0.03 64.4 24.0
09/11/2018 23:00 574.30 0.00 -- 64.8 23.0
09/11/2018 22:00 574.31 0.00 -- 64.8 24.0
09/11/2018 21:00 574.31 0.00 -- 65.3 24.0
09/11/2018 20:00 574.30 0.00 -- 66.5 24.0
09/11/2018 19:00 574.31 0.00 -- 68.3 24.0
09/11/2018 18:00 574.30 0.00 -- 68.7 24.0
09/11/2018 17:00 574.30 0.00 -- 68.7 24.0
09/11/2018 16:00 574.31 0.00 -- 68.4 24.0
09/11/2018 15:00 574.30 0.00 -- 65.7 23.0
09/11/2018 14:00 574.31 0.00 -- 62.8 23.0
09/11/2018 13:00 574.29 0.00 -- 61.1 22.0
09/11/2018 12:00 574.32 0.00 -- 59.7 22.0
09/11/2018 11:00 574.30 0.00 -- 58.6 23.0
09/11/2018 10:00 574.30 0.00 -- 57.8 22.0
09/11/2018 09:00 574.29 0.01 -- 58.1 22.0
09/11/2018 08:00 574.29 0.11 -- 57.5 22.0
09/11/2018 07:00 574.30 0.16 -- 57.3 23.0
09/11/2018 06:00 574.24 0.20 -- 56.6 23.0
09/11/2018 05:00 574.20 0.30 -- 56.3 23.0
09/11/2018 04:00 574.21 0.34 -- 56.6 22.0
09/11/2018 03:00 574.16 0.41 -- 57.0 23.0
09/11/2018 02:00 574.14 0.22 -- 57.3 23.0
09/11/2018 01:00 574.11 0.09 -- 57.5 23.0
09/11/2018 00:00 574.14 0.13 1.84 57.1 24.0
09/10/2018 23:00 574.10 0.12 -- 56.3 24.0
09/10/2018 22:00 574.08 0.16 -- 55.7 25.0
09/10/2018 21:00 574.07 0.06 -- 56.2 26.0
09/10/2018 20:00 574.08 0.02 -- 56.4 27.0
09/10/2018 19:00 574.08 0.02 -- 56.8 27.0
09/10/2018 18:00 574.11 0.01 -- 57.3 28.0
09/10/2018 17:00 574.08 0.00 -- 59.1 28.0
09/10/2018 16:00 574.09 0.00 -- 59.3 27.0
09/10/2018 15:00 574.09 0.00 -- 59.7 27.0
09/10/2018 14:00 574.09 0.00 -- 59.3 27.0
09/10/2018 13:00 574.08 0.00 -- 58.2 26.0
09/10/2018 12:00 574.08 0.00 -- 54.4 27.0
09/10/2018 11:00 574.07 0.00 -- 52.3 26.0
09/10/2018 10:00 574.10 0.00 -- 50.5 26.0
09/10/2018 09:00 574.09 0.00 -- 49.0 28.0
09/10/2018 08:00 574.10 0.00 -- 47.6 31.0
09/10/2018 07:00 574.10 0.00 -- 47.8 34.0
09/10/2018 06:00 574.10 0.00 -- 48.2 33.0
09/10/2018 05:00 574.10 0.00 -- 47.9 34.0
09/10/2018 04:00 574.10 0.00 -- 47.7 32.0
09/10/2018 03:00 574.08 0.00 -- 48.5 32.0
09/10/2018 02:00 574.09 0.00 -- 47.8 32.0
09/10/2018 01:00 574.10 0.00 -- 47.5 33.0
09/10/2018 00:00 574.09 0.00 0.52 47.4 36.0
09/09/2018 23:00 574.09 0.00 -- 47.8 37.0
09/09/2018 22:00 574.10 0.00 -- 50.5 33.0
09/09/2018 21:00 574.10 0.00 -- 51.9 37.0
09/09/2018 20:00 574.09 0.00 -- 53.8 42.0
09/09/2018 19:00 574.09 0.00 -- 57.6 50.0
09/09/2018 18:00 574.10 0.00 -- 58.8 53.0
09/09/2018 17:00 574.10 0.00 -- 59.4 72.0
09/09/2018 16:00 574.10 0.00 -- 59.5 79.0
09/09/2018 15:00 574.09 0.00 -- 59.4 89.0
09/09/2018 14:00 574.11 0.00 -- 57.5 76.0
09/09/2018 13:00 574.10 0.00 -- 56.7 52.0
09/09/2018 12:00 574.11 0.00 -- 56.0 40.0
09/09/2018 11:00 574.12 0.00 -- 54.4 46.0
09/09/2018 10:00 574.12 0.00 -- 51.1 43.0
09/09/2018 09:00 574.10 0.00 -- 49.6 38.0
09/09/2018 08:00 574.11 0.00 -- 47.5 40.0
09/09/2018 07:00 574.11 0.00 -- 48.6 39.0
09/09/2018 06:00 574.11 0.00 -- 48.8 40.0
09/09/2018 05:00 574.11 0.00 -- 48.0 46.0
09/09/2018 04:00 574.12 0.00 -- 48.9 49.0
09/09/2018 03:00 574.11 0.00 -- 50.2 53.0
09/09/2018 02:00 574.12 0.00 -- 51.1 60.0
09/09/2018 01:00 574.11 0.00 -- 51.8 70.0
09/09/2018 00:00 574.11 0.00 0.00 52.0 69.8
09/08/2018 23:00 574.11 0.00 -- 52.1 69.7
09/08/2018 22:00 574.11 0.00 -- 52.3 69.5
09/08/2018 21:00 574.11 0.00 -- 52.5 69.4
09/08/2018 20:00 574.12 0.00 -- 52.6 69.3
09/08/2018 19:00 574.12 0.00 -- 52.8 69.1
09/08/2018 18:00 574.12 0.00 -- 53.0 69.0
09/08/2018 17:00 574.12 0.00 -- 53.1 68.8
09/08/2018 16:00 574.12 0.00 -- 53.3 68.7
09/08/2018 15:00 574.12 0.00 -- 53.5 68.5
09/08/2018 14:00 574.12 0.00 -- 53.6 68.3
09/08/2018 13:00 574.12 0.00 -- 53.8 68.2
09/08/2018 12:00 574.12 0.00 -- 53.9 68.0
09/08/2018 11:00 574.12 0.00 -- 54.1 67.9
09/08/2018 10:00 574.13 0.00 -- 54.3 67.8
09/08/2018 09:00 574.13 0.00 -- 54.4 67.6
09/08/2018 08:00 574.13 0.00 -- 54.6 67.5
09/08/2018 07:00 574.13 0.00 -- 54.8 67.3
09/08/2018 06:00 574.13 0.00 -- 54.9 67.2
09/08/2018 05:00 574.13 0.00 -- 55.1 67.0
09/08/2018 04:00 574.13 0.00 -- 55.3 66.8
09/08/2018 03:00 574.13 0.00 -- 55.4 66.7
09/08/2018 02:00 574.13 0.00 -- 55.6 66.5
09/08/2018 01:00 574.13 0.00 -- 55.8 66.4
09/08/2018 00:00 574.13 0.00 0.00 55.9 66.3
09/07/2018 23:00 574.14 0.00 -- 56.1 66.1
09/07/2018 22:00 574.14 0.00 -- 56.3 66.0
09/07/2018 21:00 574.14 0.00 -- 56.4 65.8
09/07/2018 20:00 574.14 0.00 -- 56.6 65.7
09/07/2018 19:00 574.14 0.00 -- 56.8 65.5
09/07/2018 18:00 574.14 0.00 -- 56.9 65.3
09/07/2018 17:00 574.14 0.00 -- 57.1 65.2
09/07/2018 16:00 574.14 0.00 -- 57.2 65.0
09/07/2018 15:00 574.14 0.00 -- 57.4 64.9
09/07/2018 14:00 574.14 0.00 -- 57.6 64.8
09/07/2018 13:00 574.15 0.00 -- 57.7 64.6
09/07/2018 12:00 574.15 0.00 -- 57.9 64.5
09/07/2018 11:00 574.15 0.00 -- 58.1 64.3
09/07/2018 10:00 574.15 0.00 -- 58.2 64.2
09/07/2018 09:00 574.15 0.00 -- 58.4 64.0
09/07/2018 08:00 574.13 0.00 -- 57.1 64.0
09/07/2018 07:00 574.13 0.00 -- 56.5 60.0
09/07/2018 06:00 574.15 0.00 -- 58.1 59.0
09/07/2018 05:00 574.13 0.00 -- 59.3 57.0
09/07/2018 04:00 574.15 0.00 -- 60.5 62.0
09/07/2018 03:00 574.16 0.00 -- 63.1 58.0
09/07/2018 02:00 574.16 0.00 -- 63.0 55.0
09/07/2018 01:00 574.15 0.00 -- 64.7 55.0
09/07/2018 00:00 574.15 0.00 0.00 66.1 55.0
09/06/2018 23:00 574.15 0.00 -- 67.5 54.0
09/06/2018 22:00 574.14 0.00 -- 68.0 58.0
09/06/2018 21:00 574.16 0.00 -- 69.6 57.0
09/06/2018 20:00 574.14 0.00 -- 70.9 61.0
09/06/2018 19:00 574.17 0.00 -- 72.3 62.0
09/06/2018 18:00 574.15 0.00 -- 72.8 65.0
09/06/2018 17:00 574.16 0.00 -- 73.2 66.0
09/06/2018 16:00 574.12 0.00 -- 74.1 68.0
09/06/2018 15:00 574.15 0.13 -- 73.6 71.0
09/06/2018 14:00 574.18 0.00 -- 75.6 79.0
09/06/2018 13:00 574.15 0.00 -- 84.3 62.0
09/06/2018 12:00 574.15 0.00 -- 82.0 60.0
09/06/2018 11:00 574.13 0.00 -- 81.3 64.0
09/06/2018 10:00 574.13 0.00 -- 78.3 69.0
09/06/2018 09:00 574.15 0.00 -- 75.9 69.0
09/06/2018 08:00 574.13 0.00 -- 72.7 72.0
09/06/2018 07:00 574.14 0.00 -- 72.9 76.0
09/06/2018 06:00 574.14 0.00 -- 74.3 78.0
09/06/2018 05:00 574.14 0.00 -- 74.2 81.0
09/06/2018 04:00 574.14 0.00 -- 73.7 85.0
09/06/2018 03:00 574.14 0.00 -- 71.9 85.0
09/06/2018 02:00 574.15 0.00 -- 72.3 88.0
09/06/2018 01:00 574.14 0.00 -- 72.7 91.0
09/06/2018 00:00 574.15 0.00 0.13 72.7 95.0
09/05/2018 23:00 574.14 0.00 -- 74.2 98.0
09/05/2018 22:00 574.15 0.00 -- 75.4 99.0
09/05/2018 21:00 574.15 0.00 -- 76.5 100.0
09/05/2018 20:00 574.14 0.00 -- 78.0 100.0
09/05/2018 19:00 574.15 0.00 -- 80.5 100.0
09/05/2018 18:00 574.15 0.00 -- 83.7 100.0
09/05/2018 17:00 574.15 0.00 -- 86.4 100.0
09/05/2018 16:00 574.15 0.00 -- 85.6 93.0
09/05/2018 15:00 574.14 0.00 -- 84.5 74.0
09/05/2018 14:00 574.15 0.00 -- 83.5 70.0
09/05/2018 13:00 574.15 0.00 -- 80.6 70.3
09/05/2018 12:00 574.15 0.00 -- 77.7 70.7
09/05/2018 11:00 574.15 0.00 -- 74.8 71.0
09/05/2018 10:00 574.16 0.00 -- 72.0 71.3
09/05/2018 09:00 574.16 0.00 -- 69.1 71.7
09/05/2018 08:00 574.16 0.00 -- 66.2 72.0
09/05/2018 07:00 574.15 0.00 -- 66.3 71.0
09/05/2018 06:00 574.16 0.00 -- 66.6 76.0
09/05/2018 05:00 574.16 0.00 -- 66.5 76.0
09/05/2018 04:00 574.15 0.00 -- 66.5 85.0
09/05/2018 03:00 574.15 0.00 -- 66.5 94.0
09/05/2018 02:00 574.15 0.00 -- 66.9 93.0
09/05/2018 01:00 574.16 0.00 -- 66.7 100.0
09/05/2018 00:00 574.16 0.00 0.00 68.4 100.0
09/04/2018 23:00 574.16 0.00 -- 69.6 100.0
09/04/2018 22:00 574.16 0.00 -- 71.1 100.0
09/04/2018 21:00 574.16 0.00 -- 71.6 100.0
09/04/2018 20:00 574.15 0.00 -- 74.6 100.0
09/04/2018 19:00 574.16 0.00 -- 76.9 100.0
09/04/2018 18:00 574.17 0.00 -- 81.4 100.0
09/04/2018 17:00 574.17 0.00 -- 82.8 100.0
09/04/2018 16:00 574.16 0.00 -- 83.3 85.0
09/04/2018 15:00 574.17 0.00 -- 82.1 65.0
09/04/2018 14:00 574.17 0.00 -- 81.6 56.0
09/04/2018 13:00 574.17 0.00 -- 80.5 49.0
09/04/2018 12:00 574.17 0.00 -- 78.2 44.0
09/04/2018 11:00 574.16 0.00 -- 76.7 43.0
09/04/2018 10:00 574.17 0.00 -- 74.7 41.0
09/04/2018 09:00 574.15 0.00 -- 70.2 40.0
09/04/2018 08:00 574.17 0.00 -- 68.6 40.0
09/04/2018 07:00 574.16 0.00 -- 69.0 40.0
09/04/2018 06:00 574.21 0.00 -- 69.5 40.0
09/04/2018 05:00 574.15 0.00 -- 70.8 40.0
09/04/2018 04:00 574.17 0.00 -- 71.8 39.0
09/04/2018 03:00 574.15 0.00 -- 72.9 38.0
09/04/2018 02:00 574.17 0.00 -- 75.5 38.0
09/04/2018 01:00 574.16 0.00 -- 77.1 37.0
09/04/2018 00:00 574.17 0.00 0.00 75.0 35.0
09/03/2018 23:00 574.17 0.00 -- 77.2 36.0
09/03/2018 22:00 574.17 0.00 -- 78.4 35.0
09/03/2018 21:00 574.17 0.00 -- 79.3 34.0
09/03/2018 20:00 574.18 0.00 -- 81.2 34.0
09/03/2018 19:00 574.17 0.00 -- 84.1 33.0
09/03/2018 18:00 574.16 0.00 -- 85.7 32.0
09/03/2018 17:00 574.17 0.00 -- 86.7 31.0
09/03/2018 16:00 574.17 0.00 -- 86.3 31.0
09/03/2018 15:00 574.17 0.00 -- 85.1 30.0
09/03/2018 14:00 574.18 0.00 -- 83.8 35.0
09/03/2018 13:00 574.19 0.00 -- 81.1 39.0
09/03/2018 12:00 574.19 0.00 -- 79.5 40.0
09/03/2018 11:00 574.17 0.00 -- 77.6 41.0
09/03/2018 10:00 574.18 0.00 -- 74.0 45.0
09/03/2018 09:00 574.17 0.00 -- 69.4 46.0
09/03/2018 08:00 574.18 0.00 -- 68.3 46.0
09/03/2018 07:00 574.17 0.00 -- 68.7 48.0
09/03/2018 06:00 574.18 0.00 -- 68.8 49.0
09/03/2018 05:00 574.19 0.00 -- 68.1 49.0
09/03/2018 04:00 574.18 0.00 -- 66.9 49.0
09/03/2018 03:00 574.18 0.00 -- 65.9 51.0
09/03/2018 02:00 574.18 0.00 -- 65.6 52.0
09/03/2018 01:00 574.17 0.00 -- 66.5 54.0
09/03/2018 00:00 574.18 0.00 0.00 66.7 54.0
09/02/2018 23:00 574.18 0.00 -- 67.2 56.0
09/02/2018 22:00 574.19 0.00 -- 68.7 54.0
09/02/2018 21:00 574.18 0.00 -- 70.9 54.0
09/02/2018 20:00 574.19 0.00 -- 72.2 52.0
09/02/2018 19:00 574.18 0.00 -- 75.1 52.0
09/02/2018 18:00 574.18 0.00 -- 75.1 52.0
09/02/2018 17:00 574.17 0.00 -- 78.4 49.0
09/02/2018 16:00 574.19 0.00 -- 79.3 48.0
09/02/2018 15:00 574.18 0.00 -- 77.1 52.0
09/02/2018 14:00 574.17 0.00 -- 76.1 57.0
09/02/2018 13:00 574.19 0.00 -- 74.5 62.0
09/02/2018 12:00 574.19 0.00 -- 72.0 63.0
09/02/2018 11:00 574.20 0.00 -- 67.8 66.0
09/02/2018 10:00 574.18 0.00 -- 64.6 65.0
09/02/2018 09:00 574.18 0.00 -- 62.3 63.0
09/02/2018 08:00 574.20 0.00 -- 59.4 60.0
09/02/2018 07:00 574.19 0.00 -- 57.8 62.0
09/02/2018 06:00 574.20 0.00 -- 58.2 68.0
09/02/2018 05:00 574.19 0.00 -- 58.2 82.0
09/02/2018 04:00 574.20 0.00 -- 59.0 100.0
09/02/2018 03:00 574.19 0.00 -- 59.4 100.0
09/02/2018 02:00 574.19 0.00 -- 60.6 100.0
09/02/2018 01:00 574.19 0.00 -- 60.9 100.0
09/02/2018 00:00 574.19 0.00 0.00 61.6 100.0
09/01/2018 23:00 574.19 0.00 -- 61.6 100.0
09/01/2018 22:00 574.21 0.00 -- 62.0 100.0
09/01/2018 21:00 574.19 0.00 -- 63.2 100.0
09/01/2018 20:00 574.19 0.00 -- 65.2 100.0
09/01/2018 19:00 574.19 0.00 -- 67.8 100.0
09/01/2018 18:00 574.19 0.00 -- 70.0 100.0
09/01/2018 17:00 574.20 0.00 -- 70.4 100.0
09/01/2018 16:00 574.20 0.00 -- 70.6 100.0
09/01/2018 15:00 574.21 0.00 -- 69.6 100.0
09/01/2018 14:00 574.21 0.00 -- 68.8 100.0
09/01/2018 13:00 574.20 0.00 -- 66.9 100.0
09/01/2018 12:00 574.20 0.00 -- 66.0 100.0
09/01/2018 11:00 574.22 0.00 -- 63.5 100.0
09/01/2018 10:00 574.18 0.00 -- 60.5 100.0
09/01/2018 09:00 574.21 0.00 -- 58.4 100.0
09/01/2018 08:00 574.22 0.00 -- 56.6 100.0
09/01/2018 07:00 574.20 0.00 -- 54.2 100.0
09/01/2018 06:00 574.21 0.00 -- 54.0 100.0
09/01/2018 05:00 574.20 0.00 -- 52.8 100.0
09/01/2018 04:00 574.22 0.00 -- 53.4 100.0
09/01/2018 03:00 574.20 0.00 -- 53.1 100.0
09/01/2018 02:00 574.21 0.00 -- 54.0 100.0
09/01/2018 01:00 574.21 0.00 -- 54.6 100.0
09/01/2018 00:00 574.20 0.00 0.00 55.8 100.0
08/31/2018 23:00 574.20 0.00 -- 57.4 100.0
08/31/2018 22:00 574.21 0.00 -- 58.7 100.0
08/31/2018 21:00 574.20 0.00 -- 59.8 100.0
08/31/2018 20:00 574.21 0.00 -- 62.9 100.0
08/31/2018 19:00 574.22 0.00 -- 65.9 100.0
08/31/2018 18:00 574.22 0.00 -- 67.2 100.0
08/31/2018 17:00 574.22 0.00 -- 68.6 100.0
08/31/2018 16:00 574.22 0.00 -- 69.5 100.0
08/31/2018 15:00 574.21 0.00 -- 68.3 100.0
08/31/2018 14:00 574.22 0.00 -- 68.6 100.0
08/31/2018 13:00 574.21 0.00 -- 67.0 100.0
08/31/2018 12:00 574.23 0.00 -- 66.1 100.0
08/31/2018 11:00 574.23 0.00 -- 64.0 100.0
08/31/2018 10:00 574.23 0.00 -- 61.7 100.0
08/31/2018 09:00 574.22 0.00 -- 59.9 100.0
08/31/2018 08:00 574.23 0.00 -- 59.0 100.0
08/31/2018 07:00 574.22 0.00 -- 57.8 100.0
08/31/2018 06:00 574.22 0.00 -- 58.2 100.0
08/31/2018 05:00 574.23 0.00 -- 60.4 100.0
08/31/2018 04:00 574.23 0.00 -- 60.5 100.0
08/31/2018 03:00 574.23 0.00 -- 60.1 100.0
08/31/2018 02:00 574.22 0.00 -- 58.9 100.0
08/31/2018 01:00 574.23 0.00 -- 60.2 100.0
08/31/2018 00:00 574.23 0.00 0.00 61.5 100.0
08/30/2018 23:00 574.22 0.00 -- 62.0 100.0
08/30/2018 22:00 574.24 0.00 -- 63.7 100.0
08/30/2018 21:00 574.22 0.00 -- 65.3 100.0
08/30/2018 20:00 574.23 0.00 -- 69.4 100.0
08/30/2018 19:00 574.23 0.00 -- 73.3 100.0
08/30/2018 18:00 574.23 0.00 -- 75.2 100.0
08/30/2018 17:00 574.24 0.00 -- 76.8 100.0
08/30/2018 16:00 574.26 0.00 -- 77.7 100.0
08/30/2018 15:00 574.23 0.00 -- 76.6 100.0
08/30/2018 14:00 574.24 0.00 -- 75.1 100.0
08/30/2018 13:00 574.23 0.08 -- 72.7 100.0
08/30/2018 12:00 574.25 0.00 -- 77.5 100.0
08/30/2018 11:00 574.23 0.00 -- 76.9 100.0
08/30/2018 10:00 574.25 0.00 -- 74.5 100.0
08/30/2018 09:00 574.24 0.00 -- 74.0 100.0
08/30/2018 08:00 574.25 0.00 -- 72.2 100.0
08/30/2018 07:00 574.25 0.00 -- 71.5 100.0
08/30/2018 06:00 574.27 0.00 -- 72.5 100.0
08/30/2018 05:00 574.21 0.00 -- 73.8 100.0
08/30/2018 04:00 574.26 0.00 -- 74.1 100.0
08/30/2018 03:00 574.22 0.00 -- 74.6 100.0
08/30/2018 02:00 574.23 0.00 -- 74.8 100.0
08/30/2018 01:00 574.23 0.00 -- 73.8 100.0
08/30/2018 00:00 574.22 0.00 0.08 73.5 100.0
08/29/2018 23:00 574.19 0.00 -- 73.6 100.0
08/29/2018 22:00 574.24 0.00 -- 82.1 100.0
08/29/2018 21:00 574.25 0.00 -- 79.5 97.0
08/29/2018 20:00 574.24 0.00 -- 82.4 97.0
08/29/2018 19:00 574.23 0.00 -- 84.5 97.0
08/29/2018 18:00 574.23 0.00 -- 86.5 95.0
08/29/2018 17:00 574.25 0.00 -- 86.2 95.0
08/29/2018 16:00 574.24 0.00 -- 88.8 88.0
08/29/2018 15:00 574.23 0.00 -- 87.6 83.0
08/29/2018 14:00 574.24 0.00 -- 84.3 100.0
08/29/2018 13:00 574.25 0.00 -- 85.3 100.0
08/29/2018 12:00 574.24 0.00 -- 83.4 100.0
08/29/2018 11:00 574.25 0.00 -- 80.3 100.0
08/29/2018 10:00 574.25 0.00 -- 76.3 100.0
08/29/2018 09:00 574.25 0.00 -- 73.3 100.0
08/29/2018 08:00 574.25 0.00 -- 72.4 100.0
08/29/2018 07:00 574.25 0.00 -- 72.6 100.0
08/29/2018 06:00 574.25 0.00 -- 76.1 100.0
08/29/2018 05:00 574.25 0.00 -- 74.7 100.0
08/29/2018 04:00 574.24 0.00 -- 76.1 100.0
08/29/2018 03:00 574.25 0.00 -- 75.0 100.0
08/29/2018 02:00 574.26 0.00 -- 75.2 96.0
08/29/2018 01:00 574.24 0.00 -- 75.8 95.0
08/29/2018 00:00 574.24 0.00 0.00 78.1 93.0
08/28/2018 23:00 574.25 0.00 -- 80.3 90.0
08/28/2018 22:00 574.25 0.00 -- 79.5 87.0
08/28/2018 21:00 574.25 0.00 -- 81.0 84.0
08/28/2018 20:00 574.25 0.00 -- 80.0 81.0
08/28/2018 19:00 574.23 0.00 -- 82.8 80.0
08/28/2018 18:00 574.24 0.00 -- 84.0 82.0
08/28/2018 17:00 574.25 0.00 -- 87.0 81.0
08/28/2018 16:00 574.25 0.00 -- 89.2 71.0
08/28/2018 15:00 574.27 0.00 -- 87.8 66.0
08/28/2018 14:00 574.23 0.00 -- 85.7 73.0
08/28/2018 13:00 574.25 0.00 -- 84.1 79.0
08/28/2018 12:00 574.26 0.00 -- 79.7 96.0
08/28/2018 11:00 574.27 0.00 -- 79.7 100.0
08/28/2018 10:00 574.27 0.00 -- 76.9 100.0
08/28/2018 09:00 574.26 0.00 -- 73.8 100.0
08/28/2018 08:00 574.27 0.00 -- 73.1 100.0
08/28/2018 07:00 574.28 0.00 -- 70.8 100.0
08/28/2018 06:00 574.25 0.00 -- 69.1 100.0
08/28/2018 05:00 574.26 0.00 -- 69.2 100.0
08/28/2018 04:00 574.25 0.00 -- 69.5 100.0
08/28/2018 03:00 574.25 0.00 -- 69.8 100.0
08/28/2018 02:00 574.26 0.00 -- 69.4 100.0
08/28/2018 01:00 574.29 0.00 -- 69.5 100.0
08/28/2018 00:00 574.28 0.00 0.00 69.7 100.0
08/27/2018 23:00 574.25 0.00 -- 70.6 100.0
08/27/2018 22:00 574.26 0.00 -- 71.8 100.0
08/27/2018 21:00 574.25 0.00 -- 73.4 100.0
08/27/2018 20:00 574.25 0.00 -- 74.7 100.0
08/27/2018 19:00 574.26 0.00 -- 76.4 100.0
08/27/2018 18:00 574.25 0.00 -- 78.1 100.0
08/27/2018 17:00 574.26 0.00 -- 81.7 100.0
08/27/2018 16:00 574.27 0.00 -- 82.3 100.0
08/27/2018 15:00 574.27 0.00 -- 80.7 100.0
08/27/2018 14:00 574.26 0.00 -- 79.9 100.0
08/27/2018 13:00 574.27 0.00 -- 78.4 100.0
08/27/2018 12:00 574.27 0.00 -- 76.4 100.0
08/27/2018 11:00 574.26 0.00 -- 74.5 100.0
08/27/2018 10:00 574.25 0.00 -- 72.5 100.0
08/27/2018 09:00 574.27 0.00 -- 71.1 100.0
08/27/2018 08:00 574.26 0.00 -- 68.5 100.0
08/27/2018 07:00 574.28 0.00 -- 67.0 100.0
08/27/2018 06:00 574.27 0.00 -- 67.2 100.0
08/27/2018 05:00 574.26 0.00 -- 67.2 100.0
08/27/2018 04:00 574.26 0.00 -- 67.0 100.0
08/27/2018 03:00 574.26 0.00 -- 68.0 100.0
08/27/2018 02:00 574.26 0.00 -- 68.6 100.0
08/27/2018 01:00 574.28 0.00 -- 69.1 100.0
08/27/2018 00:00 574.26 0.00 0.00 69.1 100.0
08/26/2018 23:00 574.26 0.00 -- 69.1 100.0
08/26/2018 22:00 574.27 0.00 -- 69.8 100.0
08/26/2018 21:00 574.28 0.00 -- 71.8 100.0
08/26/2018 20:00 574.26 0.00 -- 73.3 100.0
08/26/2018 19:00 574.26 0.00 -- 74.1 100.0
08/26/2018 18:00 574.28 0.00 -- 77.1 100.0
08/26/2018 17:00 574.28 0.00 -- 80.3 100.0
08/26/2018 16:00 574.25 0.00 -- 79.6 100.0
08/26/2018 15:00 574.28 0.00 -- 78.3 100.0
08/26/2018 14:00 574.26 0.00 -- 77.4 100.0
08/26/2018 13:00 574.26 0.00 -- 75.1 100.0
08/26/2018 12:00 574.27 0.00 -- 72.5 100.0
08/26/2018 11:00 574.29 0.00 -- 70.5 100.0
08/26/2018 10:00 574.27 0.00 -- 66.5 100.0
08/26/2018 09:00 574.29 0.00 -- 63.1 100.0
08/26/2018 08:00 574.28 0.00 -- 59.0 100.0
08/26/2018 07:00 574.28 0.00 -- 59.2 100.0
08/26/2018 06:00 574.27 0.00 -- 61.1 100.0
08/26/2018 05:00 574.27 0.00 -- 62.5 100.0
08/26/2018 04:00 574.28 0.00 -- 64.2 100.0
08/26/2018 03:00 574.28 0.00 -- 63.8 100.0
08/26/2018 02:00 574.29 0.00 -- 64.5 100.0
08/26/2018 01:00 574.30 0.00 -- 64.8 100.0
08/26/2018 00:00 574.28 0.00 0.00 66.0 100.0
08/25/2018 23:00 574.28 0.00 -- 66.6 100.0
08/25/2018 22:00 574.30 0.00 -- 67.6 100.0
08/25/2018 21:00 574.28 0.00 -- 70.1 100.0
08/25/2018 20:00 574.28 0.00 -- 72.4 100.0
08/25/2018 19:00 574.28 0.00 -- 74.5 100.0
08/25/2018 18:00 574.29 0.00 -- 76.8 100.0
08/25/2018 17:00 574.30 0.00 -- 79.5 100.0
08/25/2018 16:00 574.30 0.00 -- 77.6 100.0
08/25/2018 15:00 574.29 0.00 -- 77.1 100.0
08/25/2018 14:00 574.29 0.00 -- 78.0 100.0
08/25/2018 13:00 574.29 0.00 -- 77.4 100.0
08/25/2018 12:00 574.30 0.00 -- 73.9 100.0
08/25/2018 11:00 574.29 0.00 -- 70.2 100.0
08/25/2018 10:00 574.29 0.00 -- 67.8 100.0
08/25/2018 09:00 574.29 0.00 -- 63.1 100.0
08/25/2018 08:00 574.29 0.00 -- 59.8 100.0
08/25/2018 07:00 574.29 0.00 -- 59.2 100.0
08/25/2018 06:00 574.29 0.00 -- 59.7 100.0
08/25/2018 05:00 574.29 0.00 -- 60.2 100.0
08/25/2018 04:00 574.29 0.00 -- 60.5 100.0
08/25/2018 03:00 574.30 0.00 -- 63.0 100.0
08/25/2018 02:00 574.29 0.00 -- 63.0 100.0
08/25/2018 01:00 574.29 0.00 -- 63.9 100.0
08/25/2018 00:00 574.29 0.00 0.00 65.6 100.0
08/24/2018 23:00 574.29 0.00 -- 67.8 100.0
08/24/2018 22:00 574.29 0.00 -- 67.8 100.0
08/24/2018 21:00 574.29 0.00 -- 69.1 100.0
08/24/2018 20:00 574.29 0.00 -- 70.0 100.0
08/24/2018 19:00 574.29 0.00 -- 73.0 100.0
08/24/2018 18:00 574.29 0.00 -- 76.9 100.0
08/24/2018 17:00 574.30 0.00 -- 79.6 100.0
08/24/2018 16:00 574.30 0.00 -- 79.6 100.0
08/24/2018 15:00 574.30 0.00 -- 79.3 100.0
08/24/2018 14:00 574.30 0.00 -- 76.8 100.0
08/24/2018 13:00 574.31 0.00 -- 74.3 100.0
08/24/2018 12:00 574.30 0.00 -- 70.8 100.0
08/24/2018 11:00 574.30 0.00 -- 67.7 100.0
08/24/2018 10:00 574.31 0.00 -- 64.6 100.0
08/24/2018 09:00 574.30 0.00 -- 62.3 100.0
08/24/2018 08:00 574.30 0.00 -- 57.1 100.0
08/24/2018 07:00 574.30 0.00 -- 55.3 100.0
08/24/2018 06:00 574.30 0.00 -- 55.1 100.0
08/24/2018 05:00 574.31 0.00 -- 55.0 100.0
08/24/2018 04:00 574.31 0.00 -- 56.3 100.0
08/24/2018 03:00 574.31 0.00 -- 56.7 100.0
08/24/2018 02:00 574.31 0.00 -- 57.2 100.0
08/24/2018 01:00 574.31 0.00 -- 55.7 100.0
08/24/2018 00:00 574.31 0.00 0.00 56.7 100.0
08/23/2018 23:00 574.31 0.00 -- 58.1 100.0
08/23/2018 22:00 574.31 0.00 -- 60.6 100.0
08/23/2018 21:00 574.31 0.00 -- 62.1 100.0
08/23/2018 20:00 574.31 0.00 -- 69.5 100.0
08/23/2018 19:00 574.30 0.00 -- 71.1 100.0
08/23/2018 18:00 574.33 0.00 -- 72.5 100.0
08/23/2018 17:00 574.31 0.00 -- 73.0 100.0
08/23/2018 16:00 574.36 0.00 -- 72.6 100.0
08/23/2018 15:00 574.34 0.00 -- 71.7 100.0
08/23/2018 14:00 574.33 0.00 -- 70.6 100.0
08/23/2018 13:00 574.32 0.00 -- 68.5 100.0
08/23/2018 12:00 574.32 0.00 -- 66.2 100.0
08/23/2018 11:00 574.32 0.00 -- 65.1 100.0
08/23/2018 10:00 574.32 0.00 -- 63.1 100.0
08/23/2018 09:00 574.32 0.00 -- 61.3 100.0
08/23/2018 08:00 574.33 0.00 -- 59.3 100.0
08/23/2018 07:00 574.35 0.00 -- 59.7 100.0
08/23/2018 06:00 574.34 0.00 -- 60.7 100.0
08/23/2018 05:00 574.33 0.00 -- 61.2 96.0
08/23/2018 04:00 574.34 0.00 -- 62.9 81.0
08/23/2018 03:00 574.34 0.00 -- 64.0 62.0
08/23/2018 02:00 574.34 0.00 -- 65.2 55.0
08/23/2018 01:00 574.33 0.00 -- 65.6 48.0
08/23/2018 00:00 574.32 0.00 0.00 64.8 47.0
08/22/2018 23:00 574.34 0.00 -- 64.4 44.0
08/22/2018 22:00 574.34 0.00 -- 64.8 46.0
08/22/2018 21:00 574.33 0.00 -- 65.8 47.0
08/22/2018 20:00 574.33 0.00 -- 67.4 47.0
08/22/2018 19:00 574.33 0.00 -- 68.8 51.0
08/22/2018 18:00 574.35 0.00 -- 73.3 55.0
08/22/2018 17:00 574.34 0.00 -- 73.3 59.0
08/22/2018 16:00 574.33 0.00 -- 70.7 68.0
08/22/2018 15:00 574.33 0.00 -- 69.6 72.0
08/22/2018 14:00 574.32 0.00 -- 67.8 75.0
08/22/2018 13:00 574.33 0.04 -- 65.4 74.0
08/22/2018 12:00 574.32 0.52 -- 64.4 75.0
08/22/2018 11:00 574.28 0.24 -- 64.8 82.0
08/22/2018 10:00 574.26 0.00 -- 64.3 91.0
08/22/2018 09:00 574.26 0.00 -- 63.6 97.0
08/22/2018 08:00 574.27 0.00 -- 63.3 99.0
08/22/2018 07:00 574.26 0.00 -- 63.1 100.0
08/22/2018 06:00 574.27 0.00 -- 63.3 100.0
08/22/2018 05:00 574.26 0.00 -- 63.2 100.0
08/22/2018 04:00 574.26 0.00 -- 63.3 100.0
08/22/2018 03:00 574.27 0.00 -- 62.5 100.0
08/22/2018 02:00 574.27 0.00 -- 62.2 100.0
08/22/2018 01:00 574.28 0.00 -- 61.9 100.0
08/22/2018 00:00 574.27 0.00 0.80 61.5 100.0
08/21/2018 23:00 574.28 0.00 -- 61.3 100.0
08/21/2018 22:00 574.26 0.00 -- 62.7 100.0
08/21/2018 21:00 574.27 0.00 -- 64.9 100.0
08/21/2018 20:00 574.28 0.00 -- 66.7 100.0
08/21/2018 19:00 574.26 0.00 -- 68.3 100.0
08/21/2018 18:00 574.26 0.00 -- 69.5 100.0
08/21/2018 17:00 574.28 0.00 -- 70.0 100.0
08/21/2018 16:00 574.27 0.00 -- 70.3 100.0
08/21/2018 15:00 574.28 0.00 -- 71.5 100.0
08/21/2018 14:00 574.28 0.00 -- 70.5 100.0
08/21/2018 13:00 574.27 0.00 -- 69.5 100.0
08/21/2018 12:00 574.29 0.00 -- 68.7 100.0
08/21/2018 11:00 574.27 0.00 -- 66.1 100.0
08/21/2018 10:00 574.27 0.00 -- 61.8 100.0
08/21/2018 09:00 574.28 0.00 -- 59.5 100.0
08/21/2018 08:00 574.27 0.00 -- 57.6 100.0
08/21/2018 07:00 574.28 0.00 -- 55.9 100.0
08/21/2018 06:00 574.28 0.00 -- 56.0 100.0
08/21/2018 05:00 574.28 0.00 -- 56.0 100.0
08/21/2018 04:00 574.28 0.00 -- 56.7 100.0
08/21/2018 03:00 574.28 0.00 -- 56.5 100.0
08/21/2018 02:00 574.28 0.00 -- 57.1 100.0
08/21/2018 01:00 574.29 0.00 -- 57.9 100.0
08/21/2018 00:00 574.29 0.00 0.00 58.9 100.0
08/20/2018 23:00 574.28 0.00 -- 60.2 100.0
08/20/2018 22:00 574.28 0.00 -- 61.4 100.0
08/20/2018 21:00 574.29 0.00 -- 64.0 100.0
08/20/2018 20:00 574.28 0.00 -- 67.2 100.0
08/20/2018 19:00 574.29 0.00 -- 69.1 100.0
08/20/2018 18:00 574.28 0.00 -- 71.4 100.0
08/20/2018 17:00 574.29 0.00 -- 74.2 100.0
08/20/2018 16:00 574.30 0.00 -- 73.5 100.0
08/20/2018 15:00 574.29 0.00 -- 70.6 100.0
08/20/2018 14:00 574.29 0.00 -- 72.4 100.0
08/20/2018 13:00 574.29 0.00 -- 70.3 100.0
08/20/2018 12:00 574.29 0.00 -- 68.6 100.0
08/20/2018 11:00 574.30 0.00 -- 68.9 100.0
08/20/2018 10:00 574.30 0.00 -- 64.3 100.0
08/20/2018 09:00 574.30 0.00 -- 61.3 100.0
08/20/2018 08:00 574.29 0.00 -- 59.2 100.0
08/20/2018 07:00 574.30 0.00 -- 59.3 100.0
08/20/2018 06:00 574.30 0.00 -- 60.4 100.0
08/20/2018 05:00 574.30 0.00 -- 59.2 100.0
08/20/2018 04:00 574.30 0.00 -- 60.2 100.0
08/20/2018 03:00 574.30 0.00 -- 59.2 100.0
08/20/2018 02:00 574.30 0.00 -- 58.7 100.0
08/20/2018 01:00 574.31 0.00 -- 59.1 100.0
08/20/2018 00:00 574.30 0.00 0.00 59.6 100.0
08/19/2018 23:00 574.31 0.00 -- 59.8 100.0
08/19/2018 22:00 574.30 0.00 -- 61.6 100.0
08/19/2018 21:00 574.29 0.00 -- 64.6 100.0
08/19/2018 20:00 574.30 0.00 -- 66.8 100.0
08/19/2018 19:00 574.30 0.00 -- 69.6 100.0
08/19/2018 18:00 574.30 0.00 -- 71.8 100.0
08/19/2018 17:00 574.30 0.00 -- 73.3 100.0
08/19/2018 16:00 574.32 0.00 -- 74.2 100.0
08/19/2018 15:00 574.31 0.00 -- 73.6 100.0
08/19/2018 14:00 574.33 0.00 -- 73.7 100.0
08/19/2018 13:00 574.32 0.00 -- 72.3 100.0
08/19/2018 12:00 574.33 0.00 -- 70.2 100.0
08/19/2018 11:00 574.33 0.00 -- 69.3 100.0
08/19/2018 10:00 574.32 0.00 -- 66.5 100.0
08/19/2018 09:00 574.31 0.00 -- 63.4 100.0
08/19/2018 08:00 574.31 0.00 -- 60.2 100.0
08/19/2018 07:00 574.32 0.00 -- 59.8 100.0
08/19/2018 06:00 574.32 0.00 -- 59.6 99.0
08/19/2018 05:00 574.32 0.00 -- 60.9 97.7
08/19/2018 04:00 574.32 0.00 -- 62.1 96.3
08/19/2018 03:00 574.32 0.00 -- 63.4 95.0
08/19/2018 02:00 574.32 0.00 -- 63.5 95.0
08/19/2018 01:00 574.32 0.00 -- 64.1 94.0
08/19/2018 00:00 574.33 0.00 0.00 65.6 94.0
08/18/2018 23:00 574.32 0.00 -- 66.1 93.0
08/18/2018 22:00 574.32 0.00 -- 66.0 86.0
08/18/2018 21:00 574.33 0.00 -- 65.8 84.0
08/18/2018 20:00 574.33 0.00 -- 67.9 78.0
08/18/2018 19:00 574.33 0.00 -- 69.4 71.0
08/18/2018 18:00 574.33 0.00 -- 73.4 67.0
08/18/2018 17:00 574.32 0.00 -- 74.5 67.0
08/18/2018 16:00 574.33 0.00 -- 75.9 67.0
08/18/2018 15:00 574.33 0.00 -- 76.9 63.0
08/18/2018 14:00 574.33 0.00 -- 76.2 68.0
08/18/2018 13:00 574.33 0.00 -- 74.7 68.0
08/18/2018 12:00 574.33 0.00 -- 74.0 69.0
08/18/2018 11:00 574.35 0.00 -- 75.1 70.0
08/18/2018 10:00 574.34 0.00 -- 73.3 82.0
08/18/2018 09:00 574.33 0.00 -- 70.9 87.0
08/18/2018 08:00 574.32 0.00 -- 70.4 93.0
08/18/2018 07:00 574.32 0.00 -- 70.4 96.0
08/18/2018 06:00 574.32 0.00 -- 69.7 100.0
08/18/2018 05:00 574.32 0.00 -- 70.2 100.0
08/18/2018 04:00 574.33 0.00 -- 69.4 100.0
08/18/2018 03:00 574.33 0.00 -- 69.4 100.0
08/18/2018 02:00 574.34 0.05 -- 69.1 100.0
08/18/2018 01:00 574.32 0.05 -- 68.6 100.0
08/18/2018 00:00 574.33 0.14 0.10 68.1 100.0
08/17/2018 23:00 574.35 0.20 -- 67.6 100.0
08/17/2018 22:00 574.29 0.00 -- 68.8 100.0
08/17/2018 21:00 574.30 0.00 -- 69.5 100.0
08/17/2018 20:00 574.28 0.00 -- 70.8 100.0
08/17/2018 19:00 574.29 0.00 -- 71.8 100.0
08/17/2018 18:00 574.28 0.00 -- 71.7 100.0
08/17/2018 17:00 574.31 0.00 -- 74.7 100.0
08/17/2018 16:00 574.30 0.00 -- 74.8 100.0
08/17/2018 15:00 574.30 0.00 -- 75.4 100.0
08/17/2018 14:00 574.31 0.00 -- 76.3 100.0
08/17/2018 13:00 574.29 0.00 -- 73.9 100.0
08/17/2018 12:00 574.29 0.00 -- 72.1 100.0
08/17/2018 11:00 574.31 0.00 -- 70.5 100.0
08/17/2018 10:00 574.30 0.00 -- 65.6 100.0
08/17/2018 09:00 574.30 0.00 -- 62.2 100.0
08/17/2018 08:00 574.29 0.00 -- 59.7 100.0
08/17/2018 07:00 574.31 0.00 -- 59.0 100.0
08/17/2018 06:00 574.30 0.00 -- 58.1 100.0
08/17/2018 05:00 574.32 0.00 -- 58.4 100.0
08/17/2018 04:00 574.30 0.00 -- 58.5 100.0
08/17/2018 03:00 574.31 0.00 -- 59.1 100.0
08/17/2018 02:00 574.30 0.00 -- 59.2 100.0
08/17/2018 01:00 574.31 0.00 -- 60.1 100.0
08/17/2018 00:00 574.32 0.00 0.34 61.3 100.0
08/16/2018 23:00 574.32 0.00 -- 62.8 100.0
08/16/2018 22:00 574.31 0.00 -- 64.6 100.0
08/16/2018 21:00 574.32 0.00 -- 66.9 100.0
08/16/2018 20:00 574.32 0.00 -- 70.5 100.0
08/16/2018 19:00 574.32 0.00 -- 78.3 100.0
08/16/2018 18:00 574.32 0.00 -- 79.3 100.0
08/16/2018 17:00 574.34 0.00 -- 80.5 100.0
08/16/2018 16:00 574.33 0.00 -- 80.3 100.0
08/16/2018 15:00 574.31 0.00 -- 79.6 100.0
08/16/2018 14:00 574.34 0.00 -- 78.9 100.0
08/16/2018 13:00 574.33 0.00 -- 78.5 88.0
08/16/2018 12:00 574.36 0.00 -- 76.8 41.0
08/16/2018 11:00 574.35 0.00 -- 75.8 32.0
08/16/2018 10:00 574.33 0.00 -- 74.0 33.0
08/16/2018 09:00 574.34 0.00 -- 71.3 28.0
08/16/2018 08:00 574.35 0.00 -- 70.5 30.0
08/16/2018 07:00 574.35 0.00 -- 68.0 28.0
08/16/2018 06:00 574.33 0.00 -- 68.5 27.0
08/16/2018 05:00 574.35 0.00 -- 68.9 26.0
08/16/2018 04:00 574.34 0.00 -- 68.8 27.0
08/16/2018 03:00 574.36 0.00 -- 70.5 24.0
08/16/2018 02:00 574.36 0.00 -- 71.1 23.0
08/16/2018 01:00 574.35 0.00 -- 70.5 24.0
08/16/2018 00:00 574.34 0.00 0.00 70.9 24.0
08/15/2018 23:00 574.36 0.00 -- 70.7 24.0
08/15/2018 22:00 574.35 0.00 -- 71.2 23.0
08/15/2018 21:00 574.35 0.00 -- 71.9 22.0
08/15/2018 20:00 574.36 0.00 -- 75.0 20.0
08/15/2018 19:00 574.36 0.00 -- 77.4 21.0
08/15/2018 18:00 574.37 0.03 -- 78.2 22.0
08/15/2018 17:00 574.34 0.04 -- 77.4 35.0
08/15/2018 16:00 574.36 0.00 -- 81.0 45.0
08/15/2018 15:00 574.36 0.00 -- 80.4 39.0
08/15/2018 14:00 574.36 0.00 -- 78.6 24.0
08/15/2018 13:00 574.35 0.00 -- 75.8 21.0
08/15/2018 12:00 574.37 0.00 -- 73.0 29.0
08/15/2018 11:00 574.35 0.00 -- 70.7 29.0
08/15/2018 10:00 574.36 0.00 -- 69.3 27.0
08/15/2018 09:00 574.36 0.00 -- 67.7 28.0
08/15/2018 08:00 574.37 0.00 -- 66.7 26.0
08/15/2018 07:00 574.36 0.00 -- 66.6 26.0
08/15/2018 06:00 574.37 0.00 -- 66.4 26.0
08/15/2018 05:00 574.36 0.00 -- 66.4 26.0
08/15/2018 04:00 574.37 0.00 -- 66.7 26.0
08/15/2018 03:00 574.37 0.00 -- 66.4 27.0
08/15/2018 02:00 574.36 0.00 -- 66.9 22.0
08/15/2018 01:00 574.38 0.00 -- 67.0 22.0
08/15/2018 00:00 574.38 0.00 0.07 68.0 22.0
08/14/2018 23:00 574.36 0.00 -- 68.9 21.0
08/14/2018 22:00 574.37 0.00 -- 69.2 21.0
08/14/2018 21:00 574.36 0.00 -- 70.1 22.0
08/14/2018 20:00 574.38 0.00 -- 70.9 21.0
08/14/2018 19:00 574.35 0.01 -- 71.6 22.0
08/14/2018 18:00 574.38 0.11 -- 71.0 22.0
08/14/2018 17:00 574.37 0.00 -- 76.9 22.0
08/14/2018 16:00 574.37 0.00 -- 77.9 23.0
08/14/2018 15:00 574.38 0.00 -- 77.8 25.0
08/14/2018 14:00 574.39 0.00 -- 75.2 35.0
08/14/2018 13:00 574.38 0.00 -- 71.7 31.0
08/14/2018 12:00 574.39 0.00 -- 69.4 28.0
08/14/2018 11:00 574.39 0.00 -- 68.6 29.0
08/14/2018 10:00 574.37 0.00 -- 67.9 28.0
08/14/2018 09:00 574.37 0.06 -- 66.9 29.0
08/14/2018 08:00 574.37 0.06 -- 67.3 29.0
08/14/2018 07:00 574.37 0.12 -- 66.2 29.0
08/14/2018 06:00 574.37 0.04 -- 66.0 29.0
08/14/2018 05:00 574.36 0.00 -- 66.3 29.0
08/14/2018 04:00 574.36 0.00 -- 66.5 30.0
08/14/2018 03:00 574.35 0.00 -- 66.5 30.0
08/14/2018 02:00 574.36 0.00 -- 66.8 31.0
08/14/2018 01:00 574.36 0.00 -- 66.8 31.0
08/14/2018 00:00 574.35 0.00 0.40 67.5 32.0
08/13/2018 23:00 574.35 0.00 -- 68.2 32.0
08/13/2018 22:00 574.36 0.00 -- 68.4 33.0
08/13/2018 21:00 574.36 0.00 -- 69.4 33.0
08/13/2018 20:00 574.36 0.00 -- 69.6 33.0
08/13/2018 19:00 574.36 0.00 -- 70.1 34.0
08/13/2018 18:00 574.36 0.00 -- 71.1 36.0
08/13/2018 17:00 574.37 0.00 -- 70.5 38.0
08/13/2018 16:00 574.37 0.00 -- 70.7 42.0
08/13/2018 15:00 574.37 0.00 -- 69.5 45.0
08/13/2018 14:00 574.36 0.00 -- 68.4 50.0
08/13/2018 13:00 574.36 0.00 -- 66.8 52.0
08/13/2018 12:00 574.37 0.00 -- 66.6 52.0
08/13/2018 11:00 574.37 0.04 -- 65.7 53.0
08/13/2018 10:00 574.37 0.01 -- 65.4 55.0
08/13/2018 09:00 574.36 0.00 -- 65.2 57.0
08/13/2018 08:00 574.37 0.00 -- 65.8 58.0
08/13/2018 07:00 574.37 0.00 -- 65.2 59.0
08/13/2018 06:00 574.37 0.00 -- 65.8 61.0
08/13/2018 05:00 574.37 0.00 -- 65.7 64.0
08/13/2018 04:00 574.37 0.00 -- 65.9 64.0
08/13/2018 03:00 574.36 0.00 -- 66.0 64.0
08/13/2018 02:00 574.37 0.00 -- 67.0 66.0
08/13/2018 01:00 574.37 0.00 -- 67.0 67.0
08/13/2018 00:00 574.37 0.00 0.05 67.4 68.0
08/12/2018 23:00 574.37 0.00 -- 66.8 69.0
08/12/2018 22:00 574.37 0.00 -- 67.3 71.0
08/12/2018 21:00 574.37 0.00 -- 67.4 72.0
08/12/2018 20:00 574.38 0.00 -- 67.8 74.0
08/12/2018 19:00 574.38 0.00 -- 67.9 76.0
08/12/2018 18:00 574.38 0.00 -- 68.1 75.0
08/12/2018 17:00 574.37 0.00 -- 67.7 79.0
08/12/2018 16:00 574.38 0.00 -- 66.5 76.0
08/12/2018 15:00 574.38 0.00 -- 65.4 74.0
08/12/2018 14:00 574.38 0.00 -- 64.6 74.0
08/12/2018 13:00 574.38 0.01 -- 64.0 80.0
08/12/2018 12:00 574.38 0.00 -- 64.2 86.0
08/12/2018 11:00 574.38 0.01 -- 63.6 95.0
08/12/2018 10:00 574.38 0.04 -- 63.0 100.0
08/12/2018 09:00 574.37 0.02 -- 62.7 100.0
08/12/2018 08:00 574.37 0.02 -- 62.5 100.0
08/12/2018 07:00 574.37 0.05 -- 63.5 100.0
08/12/2018 06:00 574.37 0.07 -- 63.1 100.0
08/12/2018 05:00 574.37 0.24 -- 63.4 100.0
08/12/2018 04:00 574.35 0.15 -- 63.8 100.0
08/12/2018 03:00 574.34 0.08 -- 65.2 100.0
08/12/2018 02:00 574.33 0.03 -- 66.3 100.0
08/12/2018 01:00 574.33 0.04 -- 65.0 100.0
08/12/2018 00:00 574.32 0.01 0.76 66.5 100.0
08/11/2018 23:00 574.32 0.00 -- 65.8 100.0
08/11/2018 22:00 574.32 0.00 -- 64.7 100.0
08/11/2018 21:00 574.32 0.00 -- 64.9 100.0
08/11/2018 20:00 574.33 0.01 -- 64.8 100.0
08/11/2018 19:00 574.33 0.03 -- 65.2 100.0
08/11/2018 18:00 574.32 0.02 -- 66.2 100.0
08/11/2018 17:00 574.32 0.00 -- 67.4 100.0
08/11/2018 16:00 574.32 0.00 -- 68.2 100.0
08/11/2018 15:00 574.33 0.00 -- 70.3 100.0
08/11/2018 14:00 574.33 0.00 -- 69.3 100.0
08/11/2018 13:00 574.33 0.00 -- 70.0 100.0
08/11/2018 12:00 574.33 0.00 -- 70.1 100.0
08/11/2018 11:00 574.34 0.00 -- 69.5 100.0
08/11/2018 10:00 574.33 0.00 -- 65.9 100.0
08/11/2018 09:00 574.32 0.00 -- 62.4 100.0
08/11/2018 08:00 574.34 0.00 -- 60.7 100.0
08/11/2018 07:00 574.33 0.00 -- 59.2 100.0
08/11/2018 06:00 574.32 0.00 -- 58.9 100.0
08/11/2018 05:00 574.33 0.00 -- 58.5 100.0
08/11/2018 04:00 574.34 0.00 -- 59.0 100.0
08/11/2018 03:00 574.34 0.00 -- 59.6 100.0
08/11/2018 02:00 574.34 0.00 -- 59.3 100.0
08/11/2018 01:00 574.34 0.00 -- 59.7 100.0
08/11/2018 00:00 574.33 0.00 0.07 61.0 100.0
08/10/2018 23:00 574.34 0.00 -- 62.6 100.0
08/10/2018 22:00 574.34 0.00 -- 65.4 100.0
08/10/2018 21:00 574.34 0.00 -- 67.7 100.0
08/10/2018 20:00 574.34 0.00 -- 71.6 100.0
08/10/2018 19:00 574.34 0.00 -- 76.3 100.0
08/10/2018 18:00 574.35 0.00 -- 78.5 100.0
08/10/2018 17:00 574.34 0.00 -- 79.2 100.0
08/10/2018 16:00 574.35 0.00 -- 78.4 100.0
08/10/2018 15:00 574.35 0.00 -- 78.2 100.0
08/10/2018 14:00 574.37 0.00 -- 76.7 100.0
08/10/2018 13:00 574.36 0.00 -- 75.6 100.0
08/10/2018 12:00 574.36 0.00 -- 74.8 100.0
08/10/2018 11:00 574.36 0.00 -- 74.3 100.0
08/10/2018 10:00 574.37 0.00 -- 72.7 100.0
08/10/2018 09:00 574.36 0.00 -- 71.0 100.0
08/10/2018 08:00 574.36 0.00 -- 69.2 100.0
08/10/2018 07:00 574.37 0.00 -- 70.4 100.0
08/10/2018 06:00 574.40 0.00 -- 71.0 100.0
08/10/2018 05:00 574.36 0.00 -- 71.3 100.0
08/10/2018 04:00 574.38 0.00 -- 69.0 100.0
08/10/2018 03:00 574.37 0.00 -- 69.0 100.0
08/10/2018 02:00 574.38 0.00 -- 67.7 100.0
08/10/2018 01:00 574.37 0.00 -- 65.9 100.0
08/10/2018 00:00 574.36 0.00 0.00 67.5 100.0
08/09/2018 23:00 574.36 0.00 -- 68.0 100.0
08/09/2018 22:00 574.38 0.00 -- 70.0 100.0
08/09/2018 21:00 574.37 0.00 -- 72.4 100.0
08/09/2018 20:00 574.38 0.00 -- 75.4 100.0
08/09/2018 19:00 574.37 0.00 -- 81.9 100.0
08/09/2018 18:00 574.38 0.00 -- 83.1 100.0
08/09/2018 17:00 574.38 0.00 -- 83.3 97.0
08/09/2018 16:00 574.39 0.00 -- 82.7 80.0
08/09/2018 15:00 574.40 0.00 -- 81.1 70.0
08/09/2018 14:00 574.37 0.00 -- 78.2 62.0
08/09/2018 13:00 574.38 0.00 -- 79.4 53.0
08/09/2018 12:00 574.40 0.00 -- 77.6 46.0
08/09/2018 11:00 574.38 0.00 -- 75.8 45.0
08/09/2018 10:00 574.38 0.00 -- 72.5 44.0
08/09/2018 09:00 574.40 0.00 -- 71.4 46.0
08/09/2018 08:00 574.41 0.00 -- 71.4 47.0
08/09/2018 07:00 574.38 0.00 -- 70.7 50.0
08/09/2018 06:00 574.37 0.00 -- 70.6 52.0
08/09/2018 05:00 574.38 0.00 -- 71.5 47.0
08/09/2018 04:00 574.40 0.01 -- 71.4 48.0
08/09/2018 03:00 574.38 0.00 -- 71.0 50.0
08/09/2018 02:00 574.40 0.00 -- 70.6 51.0
08/09/2018 01:00 574.38 0.01 -- 70.7 51.0
08/09/2018 00:00 574.38 0.01 0.02 71.1 50.0
08/08/2018 23:00 574.41 0.16 -- 70.3 47.0
08/08/2018 22:00 574.38 0.02 -- 71.7 46.0
08/08/2018 21:00 574.36 0.02 -- 72.6 46.0
08/08/2018 20:00 574.37 0.02 -- 74.6 46.0
08/08/2018 19:00 574.37 0.00 -- 77.0 46.0
08/08/2018 18:00 574.37 0.00 -- 80.6 47.0
08/08/2018 17:00 574.38 0.00 -- 81.1 47.0
08/08/2018 16:00 574.38 0.00 -- 80.5 48.0
08/08/2018 15:00 574.38 0.00 -- 80.6 49.0
08/08/2018 14:00 574.38 0.00 -- 79.0 50.0
08/08/2018 13:00 574.38 0.00 -- 78.2 50.0
08/08/2018 12:00 574.38 0.00 -- 78.6 49.0
08/08/2018 11:00 574.39 0.00 -- 77.0 52.0
08/08/2018 10:00 574.38 0.00 -- 74.7 51.0
08/08/2018 09:00 574.39 0.00 -- 72.6 48.0
08/08/2018 08:00 574.39 0.00 -- 71.3 49.0
08/08/2018 07:00 574.38 0.00 -- 69.5 53.0
08/08/2018 06:00 574.38 0.00 -- 70.1 59.0
08/08/2018 05:00 574.38 0.00 -- 71.0 65.0
08/08/2018 04:00 574.38 0.00 -- 71.3 70.0
08/08/2018 03:00 574.38 0.00 -- 71.8 68.0
08/08/2018 02:00 574.38 0.00 -- 70.7 71.0
08/08/2018 01:00 574.38 0.00 -- 70.9 77.0
08/08/2018 00:00 574.39 0.00 0.23 71.0 84.0
08/07/2018 23:00 574.38 0.00 -- 70.9 94.0
08/07/2018 22:00 574.40 0.00 -- 71.5 100.0
08/07/2018 21:00 574.39 0.00 -- 73.0 100.0
08/07/2018 20:00 574.38 0.03 -- 73.2 100.0
08/07/2018 19:00 574.38 0.00 -- 78.6 86.0
08/07/2018 18:00 574.39 0.00 -- 83.2 79.0
08/07/2018 17:00 574.38 0.00 -- 85.7 79.0
08/07/2018 16:00 574.39 0.00 -- 88.4 76.0
08/07/2018 15:00 574.37 0.00 -- 89.0 66.0
08/07/2018 14:00 574.39 0.00 -- 87.5 50.0
08/07/2018 13:00 574.40 0.00 -- 86.7 48.0
08/07/2018 12:00 574.39 0.00 -- 85.2 43.0
08/07/2018 11:00 574.40 0.00 -- 83.2 44.0
08/07/2018 10:00 574.40 0.00 -- 78.9 42.0
08/07/2018 09:00 574.40 0.00 -- 73.4 44.0
08/07/2018 08:00 574.39 0.00 -- 71.1 47.0
08/07/2018 07:00 574.40 0.00 -- 70.1 52.0
08/07/2018 06:00 574.40 0.00 -- 71.1 55.0
08/07/2018 05:00 574.39 0.00 -- 70.6 59.0
08/07/2018 04:00 574.40 0.00 -- 71.5 64.0
08/07/2018 03:00 574.39 0.00 -- 72.5 69.0
08/07/2018 02:00 574.39 0.00 -- 73.3 75.0
08/07/2018 01:00 574.39 0.00 -- 74.3 77.0
08/07/2018 00:00 574.39 0.00 0.03 75.1 76.0
08/06/2018 23:00 574.39 0.00 -- 75.5 74.0
08/06/2018 22:00 574.40 0.00 -- 76.0 65.0
08/06/2018 21:00 574.40 0.00 -- 77.8 65.0
08/06/2018 20:00 574.40 0.00 -- 80.3 69.0
08/06/2018 19:00 574.39 0.00 -- 83.4 78.0
08/06/2018 18:00 574.40 0.00 -- 88.7 87.0
08/06/2018 17:00 574.39 0.00 -- 89.1 72.0
08/06/2018 16:00 574.40 0.00 -- 88.6 66.0
08/06/2018 15:00 574.40 0.00 -- 87.7 49.0
08/06/2018 14:00 574.40 0.00 -- 85.9 37.0
08/06/2018 13:00 574.40 0.00 -- 84.3 30.0
08/06/2018 12:00 574.41 0.00 -- 81.4 26.0
08/06/2018 11:00 574.41 0.00 -- 79.7 26.0
08/06/2018 10:00 574.41 0.00 -- 77.5 24.0
08/06/2018 09:00 574.40 0.00 -- 72.4 24.0
08/06/2018 08:00 574.40 0.00 -- 69.8 25.0
08/06/2018 07:00 574.40 0.00 -- 70.1 25.0
08/06/2018 06:00 574.40 0.00 -- 69.5 25.0
08/06/2018 05:00 574.41 0.00 -- 69.7 26.0
08/06/2018 04:00 574.42 0.00 -- 69.9 26.0
08/06/2018 03:00 574.40 0.00 -- 69.5 27.0
08/06/2018 02:00 574.40 0.00 -- 70.0 28.0
08/06/2018 01:00 574.40 0.00 -- 70.0 29.0
08/06/2018 00:00 574.41 0.00 0.00 70.8 29.0
08/05/2018 23:00 574.41 0.00 -- 72.2 31.0
08/05/2018 22:00 574.41 0.00 -- 73.7 30.0
08/05/2018 21:00 574.41 0.00 -- 74.9 30.0
08/05/2018 20:00 574.42 0.00 -- 77.8 31.0
08/05/2018 19:00 574.40 0.00 -- 81.2 32.0
08/05/2018 18:00 574.40 0.00 -- 85.2 32.0
08/05/2018 17:00 574.40 0.00 -- 84.3 30.0
08/05/2018 16:00 574.42 0.00 -- 84.4 28.0
08/05/2018 15:00 574.42 0.00 -- 82.8 25.0
08/05/2018 14:00 574.43 0.00 -- 81.7 25.0
08/05/2018 13:00 574.41 0.00 -- 80.4 24.0
08/05/2018 12:00 574.42 0.00 -- 77.5 24.0
08/05/2018 11:00 574.41 0.00 -- 75.5 23.0
08/05/2018 10:00 574.43 0.00 -- 71.7 23.0
08/05/2018 09:00 574.42 0.00 -- 69.4 23.0
08/05/2018 08:00 574.41 0.00 -- 68.0 23.0
08/05/2018 07:00 574.43 0.00 -- 68.2 22.0
08/05/2018 06:00 574.42 0.00 -- 68.7 23.0
08/05/2018 05:00 574.42 0.00 -- 68.6 23.0
08/05/2018 04:00 574.42 0.00 -- 68.1 23.0
08/05/2018 03:00 574.42 0.00 -- 68.1 22.0
08/05/2018 02:00 574.42 0.00 -- 68.1 21.0
08/05/2018 01:00 574.41 0.00 -- 68.5 22.0
08/05/2018 00:00 574.43 0.00 0.00 68.0 20.0
08/04/2018 23:00 574.43 0.00 -- 69.3 20.0
08/04/2018 22:00 574.42 0.00 -- 70.2 20.0
08/04/2018 21:00 574.42 0.00 -- 71.4 20.0
08/04/2018 20:00 574.44 0.00 -- 73.4 21.0
08/04/2018 19:00 574.42 0.00 -- 75.1 21.0
08/04/2018 18:00 574.42 0.00 -- 75.2 23.0
08/04/2018 17:00 574.42 0.00 -- 75.3 23.0
08/04/2018 16:00 574.42 0.01 -- 70.6 23.0
08/04/2018 15:00 574.42 0.00 -- 71.8 23.0
08/04/2018 14:00 574.43 0.01 -- 71.2 25.0
08/04/2018 13:00 574.41 0.00 -- 71.0 22.0
08/04/2018 12:00 574.42 0.27 -- 71.6 22.0
08/04/2018 11:00 574.40 0.01 -- 73.2 23.0
08/04/2018 10:00 574.39 0.00 -- 73.2 23.0
08/04/2018 09:00 574.40 0.00 -- 71.7 23.0
08/04/2018 08:00 574.39 0.00 -- 70.2 24.0
08/04/2018 07:00 574.40 0.00 -- 69.3 24.0
08/04/2018 06:00 574.39 0.00 -- 69.5 25.0
08/04/2018 05:00 574.39 0.00 -- 70.5 25.0
08/04/2018 04:00 574.40 0.00 -- 69.5 25.0
08/04/2018 03:00 574.39 0.00 -- 70.1 26.0
08/04/2018 02:00 574.39 0.00 -- 70.1 27.0
08/04/2018 01:00 574.40 0.00 -- 70.8 27.0
08/04/2018 00:00 574.39 0.00 0.30 70.3 27.0
08/03/2018 23:00 574.38 0.01 -- 71.7 28.0
08/03/2018 22:00 574.38 0.03 -- 71.2 29.0
08/03/2018 21:00 574.40 0.00 -- 72.0 29.0
08/03/2018 20:00 574.40 0.05 -- 73.3 29.0
08/03/2018 19:00 574.39 0.38 -- 73.2 30.0
08/03/2018 18:00 574.38 0.00 -- 78.9 32.0
08/03/2018 17:00 574.38 0.00 -- 85.0 34.0
08/03/2018 16:00 574.37 0.00 -- 81.8 31.0
08/03/2018 15:00 574.37 0.00 -- 78.9 29.0
08/03/2018 14:00 574.39 0.00 -- 82.4 27.0
08/03/2018 13:00 574.37 0.00 -- 80.6 25.0
08/03/2018 12:00 574.38 0.00 -- 79.6 25.0
08/03/2018 11:00 574.38 0.00 -- 78.4 24.0
08/03/2018 10:00 574.38 0.00 -- 76.2 24.0
08/03/2018 09:00 574.37 0.00 -- 72.7 23.0
08/03/2018 08:00 574.38 0.00 -- 69.3 23.0
08/03/2018 07:00 574.38 0.00 -- 69.1 23.0
08/03/2018 06:00 574.38 0.00 -- 69.6 24.0
08/03/2018 05:00 574.36 0.00 -- 70.2 24.0
08/03/2018 04:00 574.39 0.00 -- 70.8 24.0
08/03/2018 03:00 574.38 0.00 -- 70.9 24.0
08/03/2018 02:00 574.37 0.00 -- 70.8 23.0
08/03/2018 01:00 574.38 0.00 -- 71.8 23.0
08/03/2018 00:00 574.38 0.00 0.47 72.9 22.0
08/02/2018 23:00 574.38 0.00 -- 73.5 21.0
08/02/2018 22:00 574.37 0.00 -- 74.4 20.0
08/02/2018 21:00 574.37 0.00 -- 76.4 19.0
08/02/2018 20:00 574.37 0.00 -- 77.5 19.0
08/02/2018 19:00 574.38 0.00 -- 80.6 19.0
08/02/2018 18:00 574.39 0.00 -- 83.5 19.0
08/02/2018 17:00 574.39 0.00 -- 84.5 19.0
08/02/2018 16:00 574.39 0.00 -- 82.8 18.0
08/02/2018 15:00 574.38 0.00 -- 82.8 18.0
08/02/2018 14:00 574.38 0.00 -- 82.1 18.0
08/02/2018 13:00 574.38 0.00 -- 81.3 18.0
08/02/2018 12:00 574.39 0.00 -- 80.0 18.0
08/02/2018 11:00 574.39 0.00 -- 78.9 23.0
08/02/2018 10:00 574.38 0.00 -- 76.4 21.0
08/02/2018 09:00 574.38 0.00 -- 73.6 21.0
08/02/2018 08:00 574.37 0.00 -- 72.2 19.0
08/02/2018 07:00 574.39 0.00 -- 71.0 20.0
08/02/2018 06:00 574.37 0.00 -- 70.2 19.0
08/02/2018 05:00 574.39 0.01 -- 69.6 20.0
08/02/2018 04:00 574.39 0.00 -- 69.2 18.0
08/02/2018 03:00 574.38 0.00 -- 67.9 17.0
08/02/2018 02:00 574.39 0.00 -- 68.0 18.0
08/02/2018 01:00 574.37 0.00 -- 68.3 17.0
08/02/2018 00:00 574.37 0.00 0.01 69.0 17.0
08/01/2018 23:00 574.38 0.01 -- 68.3 18.0
08/01/2018 22:00 574.36 0.00 -- 68.6 18.0
08/01/2018 21:00 574.40 0.38 -- 68.9 18.0
08/01/2018 20:00 574.39 0.67 -- 68.3 18.0
08/01/2018 19:00 574.29 0.25 -- 68.6 18.0
08/01/2018 18:00 574.26 0.22 -- 69.6 18.0
08/01/2018 17:00 574.25 0.00 -- 71.7 18.0
08/01/2018 16:00 574.25 0.00 -- 73.4 18.0
08/01/2018 15:00 574.24 0.00 -- 74.7 18.0
08/01/2018 14:00 574.24 0.00 -- 74.2 18.0
08/01/2018 13:00 574.25 0.00 -- 75.2 18.0
08/01/2018 12:00 574.24 0.00 -- 75.5 18.0
08/01/2018 11:00 574.25 0.00 -- 73.9 18.0
08/01/2018 10:00 574.25 0.00 -- 72.7 18.0
08/01/2018 09:00 574.25 0.00 -- 69.1 18.0
08/01/2018 08:00 574.25 0.00 -- 65.2 18.0
08/01/2018 07:00 574.25 0.00 -- 63.0 18.0
08/01/2018 06:00 574.25 0.00 -- 63.4 18.0
08/01/2018 05:00 574.25 0.00 -- 63.8 18.0
08/01/2018 04:00 574.25 0.00 -- 65.3 18.0
08/01/2018 03:00 574.25 0.00 -- 65.5 18.0
08/01/2018 02:00 574.24 0.00 -- 65.9 18.0
08/01/2018 01:00 574.26 0.00 -- 68.3 18.0
08/01/2018 00:00 574.25 0.00 1.53 69.7 18.0
07/31/2018 23:00 574.25 0.00 -- 71.2 17.0
07/31/2018 22:00 574.24 0.00 -- 72.6 17.0
07/31/2018 21:00 574.25 0.00 -- 73.2 17.0
07/31/2018 20:00 574.25 0.00 -- 75.8 17.0
07/31/2018 19:00 574.25 0.00 -- 77.0 17.0
07/31/2018 18:00 574.25 0.00 -- 82.6 17.0
07/31/2018 17:00 574.25 0.00 -- 82.7 18.0
07/31/2018 16:00 574.25 0.00 -- 81.7 20.0
07/31/2018 15:00 574.25 0.00 -- 80.3 20.0
07/31/2018 14:00 574.26 0.00 -- 79.4 20.0
07/31/2018 13:00 574.26 0.00 -- 77.6 20.0
07/31/2018 12:00 574.26 0.00 -- 75.8 20.0
07/31/2018 11:00 574.25 0.00 -- 72.3 20.0
07/31/2018 10:00 574.26 0.00 -- 69.3 20.0
07/31/2018 09:00 574.26 0.00 -- 67.4 20.0
07/31/2018 08:00 574.26 0.00 -- 66.0 20.0
07/31/2018 07:00 574.26 0.00 -- 66.5 19.0
07/31/2018 06:00 574.26 0.00 -- 64.1 20.0
07/31/2018 05:00 574.26 0.00 -- 62.8 19.0
07/31/2018 04:00 574.26 0.00 -- 62.1 20.0
07/31/2018 03:00 574.26 0.00 -- 63.1 19.0
07/31/2018 02:00 574.26 0.00 -- 62.9 19.0
07/31/2018 01:00 574.27 0.00 -- 63.8 17.0
07/31/2018 00:00 574.26 0.00 0.00 65.5 17.0
07/30/2018 23:00 574.26 0.00 -- 67.9 17.0
07/30/2018 22:00 574.26 0.00 -- 69.2 17.0
07/30/2018 21:00 574.26 0.00 -- 70.6 18.0
07/30/2018 20:00 574.26 0.00 -- 72.4 21.0
07/30/2018 19:00 574.26 0.00 -- 73.9 21.0
07/30/2018 18:00 574.27 0.00 -- 75.2 22.0
07/30/2018 17:00 574.27 0.00 -- 77.1 22.0
07/30/2018 16:00 574.26 0.00 -- 78.0 24.0
07/30/2018 15:00 574.27 0.00 -- 77.7 25.0
07/30/2018 14:00 574.27 0.00 -- 77.6 23.0
07/30/2018 13:00 574.28 0.00 -- 76.8 23.0
07/30/2018 12:00 574.28 0.00 -- 74.1 23.0
07/30/2018 11:00 574.28 0.00 -- 71.7 23.0
07/30/2018 10:00 574.27 0.00 -- 68.1 22.0
07/30/2018 09:00 574.26 0.00 -- 66.2 21.0
07/30/2018 08:00 574.27 0.00 -- 64.7 21.0
07/30/2018 07:00 574.27 0.00 -- 61.8 22.0
07/30/2018 06:00 574.26 0.00 -- 60.1 22.0
07/30/2018 05:00 574.27 0.00 -- 61.0 22.0
07/30/2018 04:00 574.27 0.00 -- 61.8 25.0
07/30/2018 03:00 574.27 0.00 -- 61.7 24.0
07/30/2018 02:00 574.26 0.00 -- 60.7 24.0
07/30/2018 01:00 574.27 0.00 -- 62.2 26.0
07/30/2018 00:00 574.27 0.00 0.00 62.9 28.0
07/29/2018 23:00 574.27 0.00 -- 65.6 31.0
07/29/2018 22:00 574.27 0.00 -- 67.3 34.0
07/29/2018 21:00 574.27 0.00 -- 69.4 38.0
07/29/2018 20:00 574.27 0.00 -- 72.5 45.0
07/29/2018 19:00 574.28 0.00 -- 76.9 50.0
07/29/2018 18:00 574.29 0.00 -- 78.0 44.0
07/29/2018 17:00 574.28 0.00 -- 77.0 40.0
07/29/2018 16:00 574.28 0.00 -- 77.7 36.0
07/29/2018 15:00 574.29 0.00 -- 76.6 29.0
07/29/2018 14:00 574.30 0.00 -- 75.8 26.0
07/29/2018 13:00 574.28 0.00 -- 74.6 25.0
07/29/2018 12:00 574.29 0.00 -- 73.4 23.0
07/29/2018 11:00 574.29 0.00 -- 71.8 21.0
07/29/2018 10:00 574.28 0.00 -- 70.0 23.0
07/29/2018 09:00 574.28 0.00 -- 68.4 24.0
07/29/2018 08:00 574.29 0.00 -- 67.8 22.5
07/29/2018 07:00 574.30 0.00 -- 67.3 21.0
07/29/2018 06:00 574.28 0.00 -- 67.3 21.0
07/29/2018 05:00 574.29 0.00 -- 66.7 24.0
07/29/2018 04:00 574.29 0.00 -- 67.0 24.0
07/29/2018 03:00 574.28 0.00 -- 67.0 21.0
07/29/2018 02:00 574.28 0.00 -- 67.1 18.0
07/29/2018 01:00 574.29 0.00 -- 67.0 18.0
07/29/2018 00:00 574.30 0.02 0.00 67.6 19.0
07/28/2018 23:00 574.29 0.00 -- 67.3 19.0
07/28/2018 22:00 574.30 0.00 -- 68.0 20.0
07/28/2018 21:00 574.27 0.00 -- 69.2 20.0
07/28/2018 20:00 574.31 0.02 -- 69.6 20.0
07/28/2018 19:00 574.28 0.00 -- 75.2 22.0
07/28/2018 18:00 574.29 0.00 -- 77.9 23.0
07/28/2018 17:00 574.29 0.00 -- 81.9 23.0
07/28/2018 16:00 574.29 0.00 -- 82.9 24.0
07/28/2018 15:00 574.29 0.00 -- 80.9 25.0
07/28/2018 14:00 574.29 0.00 -- 80.4 25.0
07/28/2018 13:00 574.29 0.00 -- 79.5 22.0
07/28/2018 12:00 574.28 0.00 -- 77.2 22.0
07/28/2018 11:00 574.29 0.00 -- 74.1 22.0
07/28/2018 10:00 574.30 0.00 -- 71.0 21.0
07/28/2018 09:00 574.29 0.00 -- 68.4 21.0
07/28/2018 08:00 574.28 0.00 -- 66.5 21.0
07/28/2018 07:00 574.29 0.00 -- 66.0 22.0
07/28/2018 06:00 574.29 0.00 -- 66.2 22.0
07/28/2018 05:00 574.28 0.00 -- 66.5 22.0
07/28/2018 04:00 574.28 0.00 -- 66.7 22.0
07/28/2018 03:00 574.26 0.01 -- 67.3 23.0
07/28/2018 02:00 574.28 0.00 -- 68.2 23.0
07/28/2018 01:00 574.28 0.00 -- 67.8 23.0
07/28/2018 00:00 574.29 0.02 0.05 68.0 18.0
07/27/2018 23:00 574.30 0.02 -- 68.1 18.0
07/27/2018 22:00 574.32 0.02 -- 69.0 18.0
07/27/2018 21:00 574.28 0.02 -- 69.5 19.0
07/27/2018 20:00 574.29 0.01 -- 72.1 19.0
07/27/2018 19:00 574.30 0.00 -- 76.0 18.0
07/27/2018 18:00 574.27 0.15 -- 78.2 19.0
07/27/2018 17:00 574.27 0.00 -- 81.7 19.0
07/27/2018 16:00 574.28 0.00 -- 84.7 18.0
07/27/2018 15:00 574.28 0.00 -- 83.5 22.0
07/27/2018 14:00 574.28 -- -- 83.9 23.0
07/27/2018 13:00 574.28 -- -- 82.7 36.0
07/27/2018 12:00 574.28 0.00 -- 79.9 17.0
07/27/2018 11:00 574.28 0.00 -- 77.0 17.0
07/27/2018 10:00 574.28 0.00 -- 70.8 16.0
07/27/2018 09:00 574.28 0.00 -- 67.6 16.0
07/27/2018 08:00 574.28 0.00 -- 65.4 16.0
07/27/2018 07:00 574.28 0.00 -- 63.4 16.0
07/27/2018 06:00 574.29 0.00 -- 64.5 17.0
07/27/2018 05:00 574.28 0.00 -- 65.2 17.0
07/27/2018 04:00 574.28 0.00 -- 65.8 17.0
07/27/2018 03:00 574.28 0.00 -- 66.8 17.0
07/27/2018 02:00 574.28 0.00 -- 67.5 17.0
07/27/2018 01:00 574.27 0.00 -- 69.2 18.0
07/27/2018 00:00 574.28 0.00 -- 69.8 18.0
07/26/2018 23:00 574.28 0.00 -- 70.7 18.0
07/26/2018 22:00 574.29 0.00 -- 71.8 18.0
07/26/2018 21:00 574.28 0.00 -- 72.6 18.0
07/26/2018 20:00 574.29 0.00 -- 73.6 19.0
07/26/2018 19:00 574.28 0.00 -- 73.8 19.0
07/26/2018 18:00 574.28 0.00 -- 75.0 19.0
07/26/2018 17:00 574.27 0.00 -- 75.4 20.0
07/26/2018 16:00 574.27 0.00 -- 75.7 20.0
07/26/2018 15:00 574.28 0.00 -- 76.4 20.0
07/26/2018 14:00 574.27 0.01 -- 77.5 21.0
07/26/2018 13:00 574.26 0.00 -- 77.1 22.0
07/26/2018 12:00 574.27 0.00 -- 74.8 22.0
07/26/2018 11:00 574.29 0.00 -- 74.0 22.0
07/26/2018 10:00 574.26 0.00 -- 71.7 22.0
07/26/2018 09:00 574.25 0.00 -- 70.3 23.0
07/26/2018 08:00 574.25 0.00 -- 70.1 23.0
07/26/2018 07:00 574.31 0.00 -- 69.9 24.0
07/26/2018 06:00 574.16 0.00 -- 70.2 25.0
07/26/2018 05:00 574.15 0.00 -- 70.7 25.0
07/26/2018 04:00 574.16 0.00 -- 70.8 26.0
07/26/2018 03:00 574.14 0.00 -- 70.9 26.0
07/26/2018 02:00 574.12 0.00 -- 71.0 26.0
07/26/2018 01:00 574.14 0.00 -- 71.1 26.0
07/26/2018 00:00 574.13 0.00 0.01 71.5 26.0
07/25/2018 23:00 574.13 0.00 -- 71.9 26.0
07/25/2018 22:00 574.13 0.00 -- 72.4 25.0
07/25/2018 21:00 574.15 0.00 -- 72.8 25.0
07/25/2018 20:00 574.12 0.00 -- 73.4 25.0
07/25/2018 19:00 574.12 0.00 -- 74.2 25.0
07/25/2018 18:00 574.07 0.00 -- 73.5 25.0
07/25/2018 17:00 574.11 0.00 -- 77.9 25.0
07/25/2018 16:00 574.10 0.00 -- 79.5 24.0
07/25/2018 15:00 574.07 0.00 -- 80.0 24.0
07/25/2018 14:00 574.08 0.00 -- 78.5 25.0
07/25/2018 13:00 574.10 0.00 -- 77.7 25.0
07/25/2018 12:00 574.09 0.00 -- 78.5 25.0
07/25/2018 11:00 574.10 0.00 -- 77.5 26.0
07/25/2018 10:00 574.09 0.00 -- 74.4 26.0
07/25/2018 09:00 574.11 0.00 -- 72.3 26.0
07/25/2018 08:00 574.10 0.00 -- 71.5 26.0
07/25/2018 07:00 574.10 0.00 -- 70.9 26.0
07/25/2018 06:00 574.10 0.00 -- 71.0 26.0
07/25/2018 05:00 574.11 0.00 -- 70.9 27.0
07/25/2018 04:00 574.11 0.00 -- 70.8 27.0
07/25/2018 03:00 574.09 0.00 -- 70.3 27.0
07/25/2018 02:00 574.10 0.00 -- 69.8 25.0
07/25/2018 01:00 574.12 0.00 -- 70.1 25.0
07/25/2018 00:00 574.10 0.00 0.00 70.8 23.0
07/24/2018 23:00 574.12 0.00 -- 71.9 21.0
07/24/2018 22:00 574.11 0.00 -- 72.5 20.0
07/24/2018 21:00 574.12 0.00 -- 74.0 19.0
07/24/2018 20:00 574.10 0.00 -- 75.5 19.0
07/24/2018 19:00 574.12 0.01 -- 77.7 18.0
07/24/2018 18:00 574.10 0.00 -- 79.2 18.0
07/24/2018 17:00 574.11 0.00 -- 79.4 18.0
07/24/2018 16:00 574.10 0.00 -- 80.2 18.0
07/24/2018 15:00 574.10 0.00 -- 80.3 18.0
07/24/2018 14:00 574.10 0.00 -- 80.5 19.0
07/24/2018 13:00 574.11 0.00 -- 79.4 19.0
07/24/2018 12:00 574.09 0.00 -- 77.0 18.0
07/24/2018 11:00 574.11 0.00 -- 73.7 19.0
07/24/2018 10:00 574.10 0.00 -- 72.5 19.0
07/24/2018 09:00 574.10 0.00 -- 71.0 19.0
07/24/2018 08:00 574.12 0.00 -- 70.3 18.0
07/24/2018 07:00 574.11 0.00 -- 70.1 18.0
07/24/2018 06:00 574.11 0.00 -- 70.0 18.0
07/24/2018 05:00 574.08 0.00 -- 70.1 19.0
07/24/2018 04:00 574.09 0.00 -- 70.4 18.0
07/24/2018 03:00 574.09 0.00 -- 70.4 18.0
07/24/2018 02:00 574.10 0.00 -- 70.5 18.0
07/24/2018 01:00 574.12 0.00 -- 70.3 18.0
07/24/2018 00:00 574.12 0.00 0.01 70.3 18.0
07/23/2018 23:00 574.13 0.00 -- 70.8 18.0
07/23/2018 22:00 574.09 0.00 -- 71.9 18.0
07/23/2018 21:00 574.10 0.00 -- 73.1 18.0
07/23/2018 20:00 574.11 0.00 -- 75.1 17.0
07/23/2018 19:00 574.13 0.00 -- 76.8 16.0
07/23/2018 18:00 574.09 0.00 -- 76.3 16.0
07/23/2018 17:00 574.10 0.00 -- 75.7 17.0
07/23/2018 16:00 574.09 0.00 -- 74.3 17.0
07/23/2018 15:00 574.09 0.00 -- 74.4 18.0
07/23/2018 14:00 574.10 0.00 -- 74.9 18.0
07/23/2018 13:00 574.11 0.00 -- 74.3 19.0
07/23/2018 12:00 574.09 0.00 -- 72.7 22.0
07/23/2018 11:00 574.08 0.00 -- 71.7 24.0
07/23/2018 10:00 574.09 0.00 -- 71.0 27.0
07/23/2018 09:00 574.11 0.00 -- 70.3 30.0
07/23/2018 08:00 574.10 0.00 -- 69.9 32.0
07/23/2018 07:00 574.11 0.00 -- 69.8 37.0
07/23/2018 06:00 574.08 0.00 -- 69.7 44.0
07/23/2018 05:00 574.09 0.00 -- 69.4 45.0
07/23/2018 04:00 574.08 0.00 -- 68.2 48.0
07/23/2018 03:00 574.09 0.00 -- 68.0 49.0
07/23/2018 02:00 574.08 0.00 -- 68.0 53.0
07/23/2018 01:00 574.07 0.00 -- 67.8 55.0
07/23/2018 00:00 574.10 0.00 0.00 67.5 63.0
07/22/2018 23:00 574.07 0.00 -- 67.2 73.0
07/22/2018 22:00 574.07 0.01 -- 67.4 85.0
07/22/2018 21:00 574.07 0.00 -- 67.2 97.0
07/22/2018 20:00 574.07 0.00 -- 67.0 100.0
07/22/2018 19:00 574.07 0.00 -- 67.0 100.0
07/22/2018 18:00 574.07 0.00 -- 66.5 100.0
07/22/2018 17:00 574.08 0.00 -- 65.2 100.0
07/22/2018 16:00 574.07 0.00 -- 64.3 100.0
07/22/2018 15:00 574.08 0.00 -- 63.1 100.0
07/22/2018 14:00 574.06 0.00 -- 62.1 100.0
07/22/2018 13:00 574.05 0.00 -- 61.4 100.0
07/22/2018 12:00 574.07 0.00 -- 60.3 100.0
07/22/2018 11:00 574.06 0.00 -- 60.2 100.0
07/22/2018 10:00 574.05 0.00 -- 61.2 100.0
07/22/2018 09:00 574.06 0.00 -- 60.8 100.0
07/22/2018 08:00 574.06 0.00 -- 59.8 100.0
07/22/2018 07:00 574.07 0.00 -- 58.9 100.0
07/22/2018 06:00 574.06 0.00 -- 59.0 100.0
07/22/2018 05:00 574.05 0.00 -- 59.2 100.0
07/22/2018 04:00 574.06 0.00 -- 58.7 100.0
07/22/2018 03:00 574.06 0.00 -- 58.1 100.0
07/22/2018 02:00 574.07 0.00 -- 55.7 100.0
07/22/2018 01:00 574.08 0.00 -- 56.4 100.0
07/22/2018 00:00 574.08 0.00 0.01 57.6 100.0
07/21/2018 23:00 574.06 0.00 -- 59.5 100.0
07/21/2018 22:00 574.07 0.00 -- 62.5 100.0
07/21/2018 21:00 574.07 0.00 -- 66.5 100.0
07/21/2018 20:00 574.07 0.00 -- 69.0 100.0
07/21/2018 19:00 574.07 0.00 -- 71.5 100.0
07/21/2018 18:00 574.06 0.00 -- 75.3 100.0
07/21/2018 17:00 574.07 0.00 -- 76.9 100.0
07/21/2018 16:00 574.07 0.00 -- 77.1 100.0
07/21/2018 15:00 574.07 0.00 -- 77.6 100.0
07/21/2018 14:00 574.08 0.00 -- 76.0 100.0
07/21/2018 13:00 574.09 0.00 -- 74.8 100.0
07/21/2018 12:00 -- -- -- 72.3 100.0
07/21/2018 11:00 -- -- -- 68.4 100.0
07/21/2018 10:00 -- -- -- 63.6 100.0
07/21/2018 09:00 -- -- -- 61.1 100.0
07/21/2018 08:00 -- -- -- 56.8 100.0
07/21/2018 07:00 -- -- -- 54.3 100.0
07/21/2018 06:00 -- -- -- 54.2 100.0
07/21/2018 05:00 -- -- -- 54.4 100.0
07/21/2018 04:00 -- -- -- 55.3 100.0
07/21/2018 03:00 -- -- -- 56.0 100.0
07/21/2018 02:00 -- -- -- 57.3 100.0
07/21/2018 01:00 -- -- -- 59.5 100.0
07/21/2018 00:00 -- -- 0.00 62.9 100.0